GFSNE_sfc_thetae_024.txt.gz
Theta_e
294 295 292 294 293 290 290 288 284 280 281 285 285 288 288 288 289 288 288 292 293 293 293 294 294 294 294 295 297 298 298 299 300 303 304 305 307 309
296 294 293 293 291 290 289 288 287 284 281 285 285 286 287 288 289 287 287 291 291 291 292 293 294 295 294 295 295 296 296 297 299 300 303 303 304 307
293 293 293 292 288 288 287 287 285 285 281 283 285 285 284 284 285 286 287 286 287 291 292 292 293 294 294 294 293 294 294 296 297 298 301 303 303 305
291 290 290 291 288 287 286 284 283 283 281 279 282 282 282 284 284 284 286 288 287 290 291 292 293 293 292 293 293 293 293 294 294 296 298 299 300 301
290 289 289 288 285 284 282 281 281 283 281 279 279 281 282 282 282 283 284 285 287 290 290 291 291 291 292 292 293 293 293 293 293 293 295 296 296 298
290 289 288 286 282 281 281 279 280 278 279 278 278 279 279 281 282 280 281 282 283 286 288 289 290 291 291 292 293 293 293 292 292 293 294 294 293 296
288 288 286 285 284 282 280 278 278 277 277 277 277 278 278 278 277 280 280 281 282 283 283 286 287 289 288 290 292 292 291 291 291 292 294 294 293 295
284 284 284 286 285 284 285 284 281 277 276 277 277 277 277 278 280 279 278 277 277 283 281 281 286 286 287 290 291 290 290 290 290 291 292 294 293 293
283 283 283 285 283 281 282 282 281 283 283 280 278 279 279 279 278 277 276 276 276 280 280 278 281 283 286 288 289 289 289 289 289 290 292 293 292 292
283 283 281 281 279 279 278 277 278 279 279 280 277 277 278 279 279 279 278 278 279 280 280 276 280 281 283 284 290 290 289 288 289 290 292 293 291 292
284 283 283 280 280 281 277 276 276 277 281 281 280 281 283 284 283 280 277 276 275 277 279 279 280 281 280 281 282 289 289 288 288 289 293 293 291 291
282 282 281 280 280 280 276 275 274 276 276 276 277 280 281 281 284 283 280 277 276 276 279 279 280 281 276 278 280 281 280 288 287 288 290 292 289 289
280 279 280 281 280 280 279 276 275 277 277 276 278 278 280 280 281 281 282 282 279 278 282 280 279 279 279 280 284 285 284 284 287 287 287 289 290 290
279 279 280 282 281 280 279 279 279 278 274 273 276 277 277 278 280 281 282 284 285 282 283 283 279 279 278 280 281 284 284 282 284 286 285 288 289 287
279 281 282 282 282 280 282 280 277 275 273 270 273 276 277 279 281 280 281 283 284 284 285 283 280 280 278 278 278 280 282 283 284 287 287 285 286 286
280 280 279 278 276 277 276 279 277 276 274 271 271 274 277 278 278 279 279 280 281 282 283 283 282 281 278 278 277 276 277 279 284 283 286 287 287 287
277 275 275 277 277 276 276 277 277 277 274 272 270 273 275 277 277 278 279 279 278 279 282 282 282 281 280 281 275 276 276 277 283 285 282 282 283 284
276 273 272 274 275 275 273 274 274 274 274 273 272 272 272 274 275 277 279 278 277 277 278 281 283 279 279 279 282 277 281 277 278 282 281 278 279 282
274 273 274 274 278 276 274 274 272 272 273 274 271 271 271 272 274 276 276 277 276 277 278 280 281 279 277 277 282 284 278 282 279 276 277 277 276 283
278 277 277 276 276 276 275 274 273 272 271 271 269 273 270 271 270 274 274 274 275 276 277 278 278 277 275 276 279 279 283 280 282 275 275 276 278 283
280 279 279 278 279 277 274 273 273 271 270 267 270 273 273 273 272 270 273 273 273 275 274 275 278 279 280 279 278 279 279 283 281 279 283 281 277 276
280 280 280 278 279 278 276 274 272 271 275 273 271 269 272 268 270 272 268 271 273 273 274 276 279 280 281 280 279 278 279 276 280 282 282 280 276 275
282 281 281 281 281 280 277 276 274 272 272 270 271 270 267 266 273 272 272 270 273 272 272 272 277 279 279 279 278 279 275 275 277 276 275 281 282 282

GFSNE_sfc_thetae_027.txt.gz
Theta_e
294 295 292 293 293 293 291 287 284 277 280 282 282 286 285 285 287 286 285 290 292 292 291 292 292 293 293 294 295 295 296 297 298 299 300 302 304 306
293 292 292 292 293 292 289 286 284 282 277 281 281 282 283 286 287 286 285 290 289 291 291 292 293 292 292 293 294 295 295 295 296 297 298 300 302 304
291 291 290 291 290 289 287 284 282 281 277 279 281 282 281 281 283 284 286 285 285 289 291 291 291 292 292 292 293 294 294 294 294 296 297 298 300 302
289 288 288 289 285 284 282 280 280 279 277 276 278 279 279 280 281 281 284 286 285 288 290 290 291 291 292 291 292 293 293 293 293 294 295 296 298 300
288 287 286 285 282 280 279 278 278 280 277 276 277 278 278 279 280 281 282 282 285 287 287 289 290 290 291 291 291 292 292 293 293 293 293 293 295 297
289 287 286 283 280 279 279 277 278 277 277 276 276 277 278 279 279 277 278 280 280 284 285 287 288 289 289 290 290 291 293 293 293 292 293 292 293 294
285 285 284 284 286 282 279 277 277 276 276 276 275 276 277 277 277 279 277 278 278 280 280 281 283 284 285 288 288 290 291 292 291 291 292 293 293 292
282 281 282 284 284 285 284 283 281 277 275 274 276 275 276 277 279 276 276 275 273 278 278 278 281 280 283 287 288 289 291 290 290 290 291 292 293 292
281 280 281 283 281 279 280 280 280 281 281 277 275 274 274 276 276 276 275 275 275 277 277 276 278 278 283 286 288 289 290 290 289 289 290 292 292 291
281 281 280 278 279 279 277 276 277 277 278 278 275 275 276 277 277 278 277 277 278 279 278 274 278 278 280 283 286 288 290 289 288 287 290 292 291 291
282 281 281 278 281 281 277 276 275 276 279 281 280 281 282 282 282 281 279 278 274 276 278 277 277 276 278 280 281 287 289 289 287 287 289 292 291 291
280 280 282 279 280 280 276 274 273 275 276 276 276 278 279 280 283 280 279 277 277 276 278 277 277 277 275 277 280 279 280 288 287 287 289 290 291 291
279 278 278 281 281 281 281 275 274 277 277 276 276 276 277 278 279 280 280 279 278 278 282 281 277 276 276 277 280 284 281 284 285 287 287 289 289 289
279 278 278 283 282 282 281 280 280 279 270 271 272 273 274 276 278 279 280 280 281 281 284 283 278 277 274 277 279 283 284 282 284 285 285 286 288 290
278 279 282 282 283 281 282 282 278 274 270 266 269 271 273 276 278 278 279 280 281 282 284 283 280 280 279 276 277 279 281 281 285 285 285 285 285 285
278 278 277 278 275 276 276 278 277 274 273 269 269 270 273 273 274 276 276 277 278 279 282 283 282 280 277 276 278 278 279 277 284 285 285 285 285 285
273 272 274 273 275 276 275 275 274 273 272 268 267 269 271 273 274 276 276 276 275 275 277 280 284 282 279 279 274 275 276 275 280 284 284 284 284 285
279 271 269 267 270 274 273 273 270 271 271 270 267 269 269 269 272 274 276 275 275 276 276 279 280 279 279 280 282 276 275 279 276 281 283 281 282 284
270 271 267 269 271 275 274 273 270 270 270 270 267 266 267 270 270 272 273 274 274 275 276 278 277 272 270 272 280 283 275 279 280 276 278 278 280 283
274 273 273 273 274 276 275 273 271 268 268 268 265 263 263 266 266 269 270 269 272 274 275 276 276 276 273 272 275 277 283 275 280 274 275 278 279 283
277 277 276 276 276 276 276 273 267 265 265 262 263 264 264 266 265 270 267 269 270 273 272 273 275 278 280 278 275 275 274 282 281 276 279 275 274 274
278 278 278 278 278 278 279 275 270 266 265 264 264 262 261 262 263 265 265 265 271 271 272 273 276 279 280 280 277 274 277 271 279 282 282 281 276 271
280 280 280 279 279 276 276 276 275 273 270 268 267 264 259 264 264 266 265 269 269 271 271 271 274 277 278 278 278 277 274 273 276 276 275 281 282 282

GFSNE_sfc_thetae_030.txt.gz
Theta_e
291 291 291 291 291 292 292 291 286 279 278 280 280 283 283 284 285 285 284 288 289 289 290 290 291 291 292 292 293 294 295 295 297 297 298 299 300 301
291 290 290 290 292 291 289 288 285 283 279 279 279 280 282 284 285 284 283 288 288 288 289 289 290 291 291 291 292 293 294 295 296 296 296 296 298 299
289 289 290 290 288 287 285 283 282 281 277 278 279 279 278 279 281 282 283 282 283 287 288 289 289 289 290 290 291 292 292 293 294 295 296 296 297 298
289 288 288 291 286 284 282 280 279 279 277 275 276 277 277 278 279 279 282 284 283 286 287 287 287 288 290 290 291 290 291 291 293 294 294 294 295 296
289 287 286 286 283 281 280 278 277 280 277 275 275 277 277 278 278 279 280 280 283 285 285 285 286 288 288 288 289 290 290 292 292 293 293 293 293 293
288 287 285 284 281 279 278 277 277 276 276 275 276 276 276 278 278 277 278 279 279 281 282 283 284 286 286 287 287 289 289 291 292 293 293 292 291 292
285 284 283 283 286 281 279 277 277 276 275 275 275 275 276 276 276 277 277 277 277 278 278 279 280 280 281 284 286 288 288 290 291 291 291 291 291 292
282 281 281 284 285 285 284 283 280 276 274 273 274 274 274 274 275 275 275 274 273 277 276 277 279 278 280 281 285 288 288 288 289 290 291 290 291 291
281 280 281 283 282 280 280 280 279 279 279 275 273 273 273 274 275 275 275 275 275 278 278 276 277 276 280 282 285 286 288 289 289 290 290 290 290 291
281 280 280 279 279 279 277 277 277 277 277 277 275 275 275 277 278 279 279 279 279 279 278 275 277 276 279 280 285 287 287 288 290 290 288 287 288 291
282 281 281 279 281 282 278 277 276 276 279 280 280 281 281 281 281 280 277 276 274 276 279 278 276 275 276 277 280 286 286 287 288 288 287 287 288 290
280 280 283 280 282 281 277 275 273 275 276 276 276 277 278 278 281 278 278 275 275 274 278 278 278 276 274 276 277 277 282 285 287 287 287 288 289 290
280 279 279 282 282 282 282 276 274 277 277 277 276 275 276 277 278 278 278 277 276 275 280 281 279 278 277 275 276 280 284 284 284 285 287 288 289 289
279 279 279 282 283 283 281 281 282 279 272 271 271 272 273 274 276 277 278 278 279 278 280 282 281 278 275 274 276 281 282 283 285 284 285 286 286 287
280 280 281 283 283 282 283 282 278 274 269 266 270 270 272 274 277 276 278 278 279 280 282 283 282 280 279 277 276 277 279 281 284 285 285 285 285 285
280 281 278 278 275 275 275 278 276 274 273 270 268 269 271 272 272 274 274 276 276 276 280 280 281 282 277 278 277 276 278 278 279 283 285 285 285 285
279 274 273 273 275 276 274 275 275 273 271 267 267 268 269 271 272 273 273 275 272 273 275 278 281 282 280 278 273 275 277 277 278 282 284 284 284 285
278 277 276 274 273 275 272 273 271 271 272 270 267 268 268 267 270 273 273 272 272 273 275 277 275 276 277 278 281 276 274 278 280 280 283 282 282 284
280 279 278 273 272 273 273 273 273 270 270 271 270 266 265 268 267 269 270 271 272 273 274 276 275 270 273 268 277 283 278 280 277 275 277 280 281 282
278 277 274 273 273 274 274 273 272 269 269 269 266 262 260 264 265 266 268 264 269 272 273 274 274 274 274 273 273 276 282 274 278 279 274 280 281 282
280 278 276 275 274 275 275 272 270 269 269 265 264 263 259 264 264 265 265 266 265 272 271 271 273 276 277 279 272 273 276 281 282 280 276 278 277 276
280 280 279 278 277 276 276 276 273 273 271 266 264 261 259 261 262 262 262 266 267 268 271 272 275 277 279 279 275 270 277 271 277 281 282 280 274 272
282 280 280 279 279 278 278 276 275 275 274 272 269 266 259 262 263 262 263 270 268 267 269 271 273 275 276 277 277 274 276 272 273 273 273 281 282 282

GFSNE_sfc_thetae_033.txt.gz
Theta_e
290 290 290 291 290 290 290 291 288 282 278 281 281 282 282 282 283 283 282 286 288 288 288 289 290 290 291 292 292 293 294 295 295 296 296 298 299 299
290 289 289 290 290 290 289 287 286 281 277 280 279 280 280 282 282 281 281 286 286 287 287 288 288 289 290 290 291 292 292 293 293 294 295 297 298 298
288 287 288 289 288 287 286 284 282 282 279 278 278 278 277 277 279 279 281 280 281 286 286 287 287 287 287 288 289 290 291 292 292 293 294 296 297 297
287 287 288 290 286 284 283 281 280 278 277 275 276 276 276 277 278 278 281 283 281 284 286 285 285 285 286 286 289 289 289 290 290 291 292 294 295 296
287 286 286 285 283 281 280 279 277 279 277 275 275 276 276 277 277 278 279 279 282 284 284 284 284 284 285 286 287 287 288 289 289 291 292 293 293 293
287 286 285 284 282 280 279 278 277 276 276 275 275 275 275 277 277 276 276 278 278 280 281 282 283 284 285 285 285 286 287 288 289 290 291 291 292 292
284 284 283 283 285 282 279 277 276 275 275 274 274 274 275 274 274 275 274 275 277 278 278 278 279 280 280 282 284 285 286 287 289 288 290 291 291 291
282 281 281 285 286 286 285 283 279 276 274 273 273 273 273 273 273 273 273 274 273 277 276 277 280 278 280 280 283 285 286 287 287 288 289 290 291 290
281 281 280 282 283 281 283 282 281 280 280 275 273 273 272 274 274 274 275 276 275 278 278 276 278 277 279 281 284 285 287 287 288 289 289 290 290 289
281 280 280 279 280 279 278 277 277 277 277 277 275 275 275 276 276 278 278 278 278 278 278 275 277 276 279 279 284 286 287 287 287 288 289 290 290 288
282 281 281 279 282 283 278 277 277 277 279 280 281 281 281 281 280 277 274 274 273 275 277 277 277 277 278 279 279 285 286 286 286 287 288 290 288 287
280 281 284 281 282 283 278 276 274 276 276 276 276 277 278 278 280 277 276 274 274 273 276 276 277 278 276 276 276 278 278 284 285 286 287 287 287 286
280 279 280 283 283 283 282 277 275 277 276 276 276 276 276 276 277 277 277 275 274 274 278 279 278 278 279 275 275 276 278 282 283 285 286 287 288 288
280 281 280 283 284 283 282 282 282 279 273 272 271 272 272 273 275 276 277 277 277 277 278 279 279 279 278 275 273 276 281 282 282 283 285 287 288 288
282 281 282 283 284 282 283 283 279 274 270 266 271 270 271 274 276 276 277 277 278 278 280 280 280 280 280 278 277 277 276 280 281 281 283 285 284 285
282 282 281 281 279 279 276 279 276 275 273 271 269 268 270 271 271 273 272 274 274 276 278 280 279 280 279 279 278 276 276 277 280 281 283 285 285 285
283 280 278 278 277 277 275 276 274 273 271 268 266 268 270 270 270 271 272 271 268 271 274 277 279 279 278 280 275 275 276 278 279 280 283 283 284 284
280 276 277 276 276 276 275 275 272 271 272 271 266 268 269 267 268 271 271 269 269 271 273 275 275 275 275 276 281 279 276 277 279 280 282 281 281 283
281 277 277 278 277 276 275 274 273 273 272 271 270 268 267 266 266 268 268 269 268 271 272 274 273 271 272 270 275 282 278 280 278 276 278 280 281 281
283 280 279 280 278 276 275 274 274 271 268 269 268 267 265 264 264 266 266 263 267 270 271 273 271 273 272 272 270 274 281 279 278 279 276 280 281 282
282 281 279 278 278 277 276 275 274 270 266 264 268 268 264 265 263 265 263 264 264 271 270 270 272 276 277 277 269 271 275 280 282 280 277 278 277 276
282 280 280 279 279 278 276 276 273 270 268 269 268 268 265 264 264 262 259 262 267 266 269 271 274 276 277 278 275 270 275 273 277 281 282 280 274 274
282 281 281 281 280 279 278 276 275 274 274 272 271 270 265 264 265 262 260 264 267 266 267 268 272 274 274 277 276 275 274 272 273 273 275 281 282 282

GFSNE_sfc_thetae_039.txt.gz
Theta_e
301 301 300 299 299 298 297 296 293 286 288 291 291 294 294 293 290 290 289 287 286 287 287 288 289 289 290 290 291 291 292 293 294 294 295 296 297 298
300 299 298 298 298 297 297 296 294 290 285 291 291 292 292 289 289 288 288 286 286 286 286 286 287 288 288 289 289 290 290 291 291 292 293 294 295 296
298 297 297 297 296 296 297 296 294 292 288 289 291 290 289 287 288 288 286 286 286 285 285 286 286 286 287 287 287 287 288 288 289 290 292 293 294 295
296 296 295 294 295 296 295 294 293 293 289 286 288 287 286 287 286 285 284 284 285 285 284 285 285 285 285 286 286 287 287 287 288 288 290 291 291 292
296 295 295 295 294 294 294 292 292 290 289 286 285 286 285 286 284 284 284 284 284 284 284 284 284 285 285 286 286 287 287 287 287 287 287 288 289 290
295 295 295 294 294 293 292 291 290 288 287 285 284 284 284 284 283 281 281 283 282 283 284 284 284 285 285 285 286 286 286 287 287 287 287 288 288 288
294 294 294 294 292 292 291 290 288 286 285 284 283 283 282 282 280 281 280 281 282 284 283 284 285 285 286 286 286 286 286 286 287 287 287 288 288 288
293 294 293 291 291 289 287 287 287 286 284 283 283 281 281 281 281 280 280 279 277 284 282 282 284 284 285 287 286 285 285 286 286 287 288 288 288 289
293 293 292 289 288 289 287 287 285 283 284 285 282 282 281 281 281 280 280 279 279 282 281 279 283 283 286 286 286 286 285 286 286 287 287 287 288 288
293 293 292 291 290 288 287 287 287 286 285 284 284 284 283 282 282 281 281 281 281 282 282 277 282 282 285 286 286 286 286 286 286 286 287 287 287 287
291 291 290 289 288 286 285 285 285 285 284 283 283 283 281 281 282 282 280 279 277 279 282 280 281 281 283 285 287 286 285 286 286 286 286 286 287 287
290 289 286 288 286 285 286 285 283 284 284 283 283 282 282 283 282 283 281 278 278 277 282 278 279 279 278 284 286 287 288 286 286 286 286 286 287 287
288 288 289 286 286 286 286 286 285 286 283 283 282 282 282 283 283 283 283 281 278 278 281 280 278 278 278 279 283 286 286 287 288 287 287 287 287 287
288 289 289 286 285 286 286 285 284 282 284 283 282 281 282 282 283 283 283 282 282 280 281 281 278 278 278 279 280 284 286 287 287 287 287 288 287 287
290 289 286 286 285 284 285 285 284 283 283 282 281 281 282 283 283 282 282 282 281 281 281 282 280 280 279 278 279 281 282 284 287 286 288 285 286 287
286 288 286 284 285 285 284 285 285 284 283 282 282 283 283 282 281 282 280 280 279 279 281 281 281 281 279 280 280 280 283 279 285 285 286 285 286 285
285 285 285 285 283 283 284 284 284 284 282 283 282 281 281 281 281 282 280 279 277 277 278 280 281 280 280 280 279 281 282 282 284 284 285 284 286 285
285 284 284 284 284 282 282 282 283 282 282 282 282 281 281 280 280 280 280 278 277 277 277 279 279 279 280 282 281 281 282 281 283 284 285 283 284 285
283 284 284 284 284 283 282 282 283 283 283 282 282 281 281 281 279 280 279 278 277 277 278 279 278 277 275 276 281 280 280 281 281 283 285 283 283 284
284 284 284 285 283 282 282 282 282 283 282 281 281 282 281 280 280 279 279 278 277 276 277 278 277 277 276 276 276 281 281 281 281 281 282 284 286 283
275 278 284 285 284 284 283 283 283 283 282 281 281 281 280 280 279 280 279 275 275 276 275 276 277 277 279 280 277 279 283 281 282 281 282 282 283 283
273 274 275 276 284 284 284 284 283 283 282 281 280 280 280 279 279 279 279 278 277 277 276 277 278 279 279 279 279 279 282 283 282 281 281 281 281 280
271 271 272 273 275 277 278 282 283 282 282 281 279 279 280 278 279 280 279 277 277 276 276 276 277 278 278 278 278 279 279 280 282 281 282 280 281 281

GFSNE_sfc_thetae_042.txt.gz
Theta_e
304 303 302 301 301 300 299 298 295 291 291 295 294 297 297 297 296 295 293 292 290 288 288 288 288 289 290 290 291 291 292 293 293 294 294 295 296 297
301 301 301 300 300 300 299 298 297 294 291 294 294 296 296 295 295 293 292 290 290 289 287 287 287 288 288 288 289 290 290 290 290 291 292 293 294 295
301 299 299 300 299 299 298 298 296 295 291 294 294 295 294 293 292 293 292 291 290 289 288 287 286 286 286 287 287 288 288 289 289 290 290 291 292 294
299 299 298 298 298 299 297 297 296 296 293 290 293 292 293 292 291 290 289 289 289 289 287 286 286 285 285 286 287 287 287 288 288 289 289 289 290 292
299 299 298 298 297 297 297 296 295 294 294 291 290 292 291 291 290 290 289 288 288 288 288 288 286 286 286 286 286 287 287 287 287 288 288 288 288 289
299 299 299 298 298 297 296 296 294 293 293 291 290 289 289 290 289 286 285 287 286 287 288 287 286 287 286 287 287 287 287 288 287 287 287 287 287 287
299 299 299 298 295 295 295 295 294 292 291 289 288 287 287 287 286 286 284 285 286 287 287 287 287 288 288 288 288 288 287 287 287 287 287 287 288 288
296 297 298 296 294 291 290 290 291 292 290 289 287 286 286 286 287 285 284 283 281 288 285 285 287 286 288 289 288 287 287 287 287 287 287 287 288 288
296 296 295 295 294 296 290 288 287 286 286 290 287 287 286 287 287 284 283 283 283 285 284 282 286 285 287 288 288 288 288 287 287 287 287 287 288 288
295 295 295 295 296 295 294 293 292 292 290 288 288 289 289 288 286 285 284 284 285 286 286 281 285 284 286 288 288 289 287 287 286 287 287 287 287 287
294 294 294 294 292 291 292 291 291 290 290 288 287 286 284 282 283 284 283 282 281 282 285 283 283 283 284 286 288 288 288 288 288 288 287 287 287 287
293 293 289 291 289 288 291 290 289 289 290 289 287 285 284 286 282 284 284 281 281 280 284 282 282 282 280 284 286 287 289 288 288 288 288 288 288 288
292 292 293 288 287 287 287 289 289 291 289 287 287 287 287 286 286 286 286 284 282 281 284 283 281 281 281 281 283 286 288 289 289 289 289 289 288 288
290 293 293 289 288 287 287 286 286 286 288 288 285 285 285 285 286 286 286 286 286 284 285 284 281 280 279 279 280 283 286 288 289 288 289 289 289 288
290 289 287 287 287 286 285 285 284 287 286 285 285 284 285 286 287 286 286 286 285 285 284 284 283 282 281 279 279 281 282 285 288 288 289 290 288 286
286 288 287 286 286 287 286 286 286 287 286 286 286 286 287 286 285 285 283 284 282 283 284 285 284 283 281 281 281 280 283 282 286 286 288 289 288 287
283 286 285 286 286 286 287 286 286 287 286 287 285 285 285 284 284 284 283 283 281 281 282 283 284 284 283 282 280 281 282 284 284 285 286 286 287 286
284 284 285 286 286 287 286 285 285 284 285 286 286 285 284 283 283 283 283 282 281 281 281 282 282 281 281 283 284 282 282 282 283 284 286 285 285 286
279 281 284 286 286 286 287 286 284 285 285 284 285 285 284 284 283 282 282 281 281 281 281 282 281 280 277 276 283 281 281 282 282 283 285 285 285 285
279 278 279 281 281 284 286 285 285 286 284 285 285 285 285 283 283 281 281 281 281 281 280 281 281 280 278 277 278 282 282 282 282 282 283 285 287 284
276 276 277 277 279 279 281 286 286 285 285 285 284 284 284 283 283 282 282 281 280 280 278 279 282 279 281 282 279 281 284 281 282 282 282 283 283 283
274 274 275 276 276 276 278 280 283 285 284 284 284 284 284 284 283 282 282 280 280 280 280 281 281 281 281 280 280 282 283 284 283 282 281 281 281 279
272 273 273 273 275 275 275 276 277 279 284 284 284 283 284 283 283 283 282 281 280 280 279 279 280 280 280 280 279 281 281 283 283 284 283 281 281 281

GFSNE_sfc_thetae_048.txt.gz
Theta_e
302 301 300 301 302 301 299 297 293 287 288 292 292 295 294 294 295 292 292 298 296 294 293 293 293 292 291 291 291 291 292 292 293 293 293 294 295 295
301 300 300 301 301 300 297 297 295 291 286 291 291 292 293 295 295 293 292 297 295 294 294 294 294 291 290 290 290 290 290 291 291 291 292 292 293 294
300 299 299 300 299 297 297 295 294 293 289 289 292 291 291 292 292 292 293 290 289 294 294 293 293 291 290 289 289 289 289 290 290 290 290 291 292 292
298 299 299 300 297 298 295 294 293 293 290 287 288 289 289 290 290 289 291 291 288 293 293 293 292 291 290 290 289 289 289 289 289 289 289 290 291 291
298 298 298 298 297 297 297 294 294 295 292 288 287 289 288 289 288 288 288 287 290 293 293 292 292 292 291 291 290 290 290 289 289 289 289 289 290 290
298 298 298 298 297 297 295 293 294 293 293 290 289 287 287 288 287 285 283 285 284 289 289 289 290 291 292 292 291 291 291 291 290 290 290 289 289 289
297 297 297 297 297 296 296 292 291 291 290 288 286 285 284 284 284 284 283 283 283 283 282 283 283 283 284 288 290 292 291 291 291 290 289 289 289 289
294 296 296 296 296 293 292 292 292 290 289 288 288 287 284 284 284 284 282 280 278 283 281 280 282 281 284 284 289 289 289 289 289 289 288 288 289 288
294 294 295 295 292 292 291 291 289 290 290 290 287 287 287 287 285 284 283 281 279 281 280 278 280 281 283 286 289 289 289 289 289 289 289 289 289 288
293 292 290 290 291 291 289 287 288 290 290 290 288 288 289 289 286 286 285 283 280 280 281 278 280 279 281 282 288 289 289 288 288 288 289 289 289 289
292 291 291 290 290 290 288 287 288 288 291 291 291 291 290 289 287 283 280 280 277 279 280 279 280 279 279 279 281 288 288 288 288 288 288 289 289 289
286 288 288 288 288 288 285 285 284 285 287 287 287 287 286 286 286 285 282 281 280 278 281 279 279 277 274 278 279 280 280 285 287 288 288 288 289 287
282 282 283 286 285 285 284 282 282 285 285 286 286 286 286 288 287 284 284 283 280 280 283 282 279 277 275 276 276 278 279 280 281 284 287 288 289 288
280 281 281 284 284 283 283 284 285 284 285 284 284 285 285 287 287 286 284 283 283 282 284 284 279 277 274 275 276 277 278 280 280 280 281 286 287 288
280 281 281 282 283 282 284 284 282 282 282 282 282 283 285 287 287 287 286 286 285 284 286 285 279 279 277 276 276 277 277 279 280 279 282 280 281 285
279 278 278 280 281 282 283 284 284 283 283 283 284 285 284 283 285 285 283 283 283 282 284 283 282 281 277 278 278 277 278 277 279 280 279 280 283 283
276 276 278 278 278 278 278 279 281 280 280 284 284 284 282 280 285 285 283 283 281 278 280 281 282 282 280 280 276 278 278 279 280 278 280 280 284 280
276 275 274 273 274 275 276 276 277 277 278 278 284 283 282 283 283 284 284 281 280 280 280 280 280 278 278 279 283 279 280 278 277 281 281 281 281 280
273 273 271 272 273 274 275 275 274 276 276 277 281 281 281 280 280 282 282 282 281 280 281 280 279 274 271 269 278 283 275 277 280 276 277 280 280 283
274 273 272 272 273 273 273 273 274 274 274 275 276 280 277 279 277 281 281 281 280 280 280 280 278 278 274 271 269 273 283 275 277 279 275 279 283 284
273 272 271 271 271 272 271 272 272 273 273 273 274 276 280 281 278 279 280 281 280 281 279 278 279 278 278 275 267 270 276 284 280 276 275 274 277 278
270 270 271 270 270 270 270 270 271 271 271 272 273 274 275 278 278 276 279 282 280 280 280 279 279 279 277 276 273 269 277 279 281 282 281 279 273 271
268 270 269 269 269 269 270 268 269 269 270 271 271 272 272 272 275 278 279 282 281 280 279 277 278 278 277 277 274 272 275 278 280 279 278 281 281 281

GFSNE_sfc_thetae_051.txt.gz
Theta_e
299 301 300 300 301 301 300 296 292 285 285 289 289 293 292 293 294 295 292 297 297 297 296 296 295 295 294 293 292 292 292 292 292 293 293 293 294 295
301 299 300 300 301 301 300 297 293 289 287 289 289 290 291 293 293 293 291 296 297 295 295 295 295 295 294 292 292 291 291 291 291 292 292 292 293 293
299 299 299 300 299 299 296 293 292 290 286 288 289 290 289 289 291 292 292 292 291 295 294 295 295 294 294 293 291 291 291 291 291 291 291 291 292 292
298 299 299 300 297 295 294 293 291 293 290 289 287 288 288 289 288 287 291 292 289 293 295 294 294 293 293 292 291 291 291 290 290 290 291 291 291 291
298 298 298 297 295 297 297 296 296 296 293 291 291 288 290 288 288 287 287 287 288 293 293 293 293 293 293 292 292 291 291 291 291 291 290 290 290 290
298 297 297 296 296 295 294 293 292 289 289 291 290 290 287 290 288 287 285 285 284 288 290 288 289 291 292 293 292 292 292 292 292 292 291 290 290 290
296 297 296 297 296 294 294 293 288 288 288 287 287 284 284 285 285 287 285 283 284 282 283 281 282 282 283 287 288 291 291 291 291 292 291 290 290 289
293 295 295 295 294 293 293 292 291 287 285 284 286 286 287 282 283 283 283 282 282 284 282 280 281 280 281 281 287 289 289 289 290 290 290 290 289 289
293 292 292 295 291 289 288 288 287 289 288 285 284 285 286 286 283 284 285 285 284 285 280 277 279 279 281 285 288 290 289 289 289 289 289 289 288 288
290 290 287 286 287 288 286 284 285 287 287 288 285 286 287 288 287 288 287 286 284 281 280 276 278 278 280 281 286 288 288 289 288 289 288 288 288 288
288 286 286 285 288 287 283 280 280 281 286 289 289 289 288 288 288 286 282 283 281 279 281 279 280 279 278 278 280 286 287 287 287 287 287 288 288 288
282 284 285 284 285 285 280 279 278 278 279 280 282 284 286 286 288 287 285 281 281 279 281 278 278 277 274 277 279 279 278 283 286 286 287 287 288 285
279 279 279 283 283 283 283 281 280 282 282 281 283 283 284 285 287 285 285 285 283 281 281 281 277 276 275 275 276 278 276 277 278 281 284 286 286 287
278 278 278 281 281 282 282 284 284 283 282 281 280 281 282 283 284 287 285 284 285 284 283 283 277 277 275 273 273 276 275 277 277 278 280 282 285 286
278 278 279 280 281 280 282 281 280 280 280 278 278 280 283 283 286 286 285 285 284 283 284 283 280 280 278 276 274 275 275 276 277 276 276 278 278 280
277 276 277 278 277 277 277 278 278 277 277 276 276 277 282 285 285 285 284 283 282 280 284 284 282 281 277 277 277 275 275 275 277 276 279 274 277 284
275 273 274 275 275 275 275 275 275 275 274 274 274 276 277 284 283 282 282 283 281 276 279 282 283 282 281 280 275 276 277 275 276 279 277 273 280 283
274 271 268 266 271 273 272 272 272 272 273 273 273 274 275 279 282 283 284 282 280 278 278 280 280 278 278 280 282 277 274 276 276 278 278 274 278 282
271 271 266 265 268 272 271 270 270 271 272 272 272 273 274 275 280 282 281 282 281 280 278 280 279 275 275 271 277 283 275 276 275 275 275 274 278 281
273 271 268 268 270 270 270 269 269 270 270 270 270 272 272 273 273 280 281 280 280 279 280 280 280 279 275 272 269 272 283 275 275 272 273 274 280 284
271 271 268 267 268 268 264 263 263 267 267 266 268 270 271 271 271 273 278 279 280 280 279 279 280 280 279 275 266 267 271 282 281 276 272 271 272 275
267 268 268 267 264 264 260 261 265 265 267 266 267 267 269 270 270 271 273 278 278 279 280 281 280 279 277 275 270 264 271 274 281 283 281 278 271 269
263 265 263 260 259 260 267 264 264 265 265 266 266 266 267 268 270 270 270 272 274 279 280 279 280 279 278 277 273 270 273 273 278 278 276 281 282 282

GFSNE_sfc_thetae_054.txt.gz
Theta_e
303 303 302 301 299 301 300 298 294 289 290 290 289 292 292 291 294 296 295 299 298 298 298 299 299 298 297 296 296 295 294 293 293 293 293 293 294 295
301 301 300 300 300 300 300 299 296 293 289 288 289 290 291 293 293 294 294 296 297 296 296 297 297 298 298 297 296 294 293 293 292 292 292 292 293 293
300 299 299 300 299 299 298 296 294 292 290 290 288 289 288 289 291 291 293 292 292 297 296 296 295 296 296 296 296 295 293 292 292 292 292 292 293 293
298 299 299 300 298 297 296 293 291 291 289 289 288 287 287 289 289 288 291 292 292 294 296 296 295 294 294 294 294 293 293 293 292 291 291 292 292 293
299 298 298 298 296 295 294 293 294 295 294 292 290 290 288 289 289 289 289 289 292 295 294 295 295 295 294 293 293 293 293 292 292 292 292 292 291 291
298 298 298 297 294 293 292 290 291 288 288 288 289 289 286 287 286 286 286 285 286 290 293 292 293 294 294 293 293 293 293 293 293 292 292 291 291 291
297 297 297 297 296 294 292 289 287 286 286 286 285 285 283 282 283 284 283 286 285 284 285 284 287 286 287 292 290 292 293 292 292 291 290 291 290 291
294 295 295 295 294 290 289 289 287 283 282 281 281 282 284 283 283 284 284 280 283 283 282 284 285 285 285 284 287 288 289 290 290 290 290 290 290 289
292 293 292 291 288 286 287 286 285 287 287 283 281 282 282 283 285 284 282 283 283 286 282 284 284 283 285 284 288 289 290 290 289 290 290 289 289 288
288 287 285 284 285 284 282 280 280 281 281 282 282 283 284 285 285 285 284 285 287 286 285 282 280 280 281 281 286 288 289 288 288 288 288 287 287 287
285 284 284 282 284 285 281 279 279 280 284 285 285 285 285 286 286 284 282 281 280 284 281 283 279 280 280 279 281 288 287 287 287 287 287 287 287 287
281 281 283 282 283 282 279 278 278 279 280 282 282 282 283 283 286 284 283 281 281 278 280 280 279 280 275 277 277 278 278 283 285 285 286 285 286 283
279 279 280 281 281 282 283 280 280 280 281 280 280 280 281 282 283 283 284 283 282 283 282 283 280 278 277 275 276 277 276 277 277 280 283 284 285 285
278 279 279 280 281 282 281 280 280 279 277 277 276 277 277 277 279 283 284 285 286 285 287 284 281 278 274 273 273 276 276 276 276 277 277 281 283 285
279 278 279 280 280 280 279 279 277 276 274 273 274 274 275 278 278 282 284 286 286 285 286 284 280 279 277 274 274 275 275 277 275 275 274 275 275 274
278 277 277 278 277 277 277 277 276 275 273 273 273 274 275 275 276 280 283 284 283 282 283 284 282 281 277 277 277 275 275 274 275 275 275 272 274 273
275 274 274 274 274 274 274 274 273 273 272 272 272 271 272 273 274 276 281 282 280 278 280 281 283 283 282 281 275 276 275 274 275 276 276 271 273 275
275 273 270 269 270 272 271 271 270 270 271 271 269 270 270 271 272 275 275 282 280 281 280 279 281 280 279 280 282 277 275 274 275 277 276 271 274 278
273 271 268 267 268 270 270 269 268 269 270 269 268 267 269 270 270 271 273 276 280 280 280 280 281 279 272 271 277 283 275 275 274 273 276 273 271 279
273 271 270 270 270 269 269 268 268 266 266 267 265 266 267 267 268 269 271 271 276 280 280 280 280 279 275 272 271 272 282 273 272 273 273 273 276 281
271 270 270 269 268 268 264 262 258 260 262 259 262 266 263 265 266 269 269 270 271 278 279 279 280 282 279 275 269 268 270 280 279 277 274 273 271 274
269 269 268 267 265 264 260 259 259 256 261 261 263 259 261 264 265 267 268 268 269 272 274 280 282 280 277 276 272 263 269 270 279 283 281 279 272 269
266 267 265 262 259 259 262 259 258 260 263 262 263 263 262 263 265 265 266 268 269 270 272 277 280 279 277 276 273 270 271 269 275 277 277 282 282 281

GFSNE_sfc_thetae_057.txt.gz
Theta_e
305 305 303 302 301 301 300 298 295 289 290 291 290 292 292 291 293 293 294 298 300 299 299 301 302 303 303 302 300 299 298 297 296 295 294 294 294 295
303 302 301 300 301 301 299 299 298 294 290 291 292 290 291 292 293 292 293 298 298 298 297 298 299 300 301 301 300 299 298 297 296 295 294 294 294 294
301 301 300 300 300 299 298 297 295 294 290 291 290 289 288 289 290 290 292 291 293 296 297 297 297 297 298 298 298 298 298 297 295 294 293 293 293 293
300 300 299 300 299 298 296 295 294 293 289 286 288 287 286 288 289 288 291 292 290 294 295 296 296 296 295 296 296 296 296 296 295 294 293 292 293 293
300 299 299 299 297 296 295 294 294 293 289 287 288 287 287 287 287 288 288 288 290 294 294 294 295 296 296 295 295 295 294 295 293 293 293 293 292 292
299 299 299 298 296 295 294 292 289 286 285 284 284 284 284 286 285 284 285 285 286 290 292 292 293 294 295 295 294 294 294 294 293 293 292 291 291 292
298 298 298 297 296 294 293 289 284 283 282 281 280 281 281 280 281 282 283 285 286 285 286 286 286 287 289 292 294 294 293 292 292 293 293 292 291 290
295 296 296 295 290 289 289 288 285 281 279 279 279 279 279 280 280 281 283 282 280 284 282 284 283 283 284 284 289 291 291 291 291 292 291 291 290 290
294 293 291 289 288 286 285 284 283 284 285 280 277 278 278 279 281 281 280 279 279 282 283 282 286 283 285 287 289 289 289 290 290 290 290 289 289 289
290 289 286 285 285 282 280 279 279 280 280 281 279 279 280 281 281 281 281 282 282 283 284 280 284 282 282 283 287 288 288 289 290 289 289 289 288 287
284 283 282 281 283 283 280 279 279 281 283 284 285 285 285 285 285 283 281 280 278 279 281 282 282 280 280 279 282 286 288 289 289 288 288 287 287 287
281 280 283 281 282 282 280 279 278 278 279 279 281 281 282 282 284 283 281 279 279 279 281 280 280 279 278 279 279 280 283 287 287 286 285 285 285 281
279 278 278 280 281 282 282 279 278 278 277 277 277 277 278 278 279 279 279 280 279 280 283 282 280 279 280 277 277 278 279 280 278 280 283 284 285 284
279 278 278 280 281 281 279 279 279 277 274 274 274 274 274 275 276 277 278 279 281 283 286 285 282 280 279 276 275 276 276 277 275 277 277 281 283 283
279 279 279 280 280 279 278 278 276 275 273 271 272 272 273 274 276 276 277 278 281 285 286 286 284 282 280 276 274 275 276 277 275 275 273 274 274 272
278 278 278 279 278 277 277 276 275 274 272 271 271 272 272 272 273 274 273 275 276 282 284 283 284 283 279 278 278 274 277 275 276 276 275 272 272 270
277 276 274 274 273 274 274 273 273 272 271 271 270 270 269 270 271 272 272 273 273 277 279 281 283 283 282 281 277 277 278 275 276 277 275 270 270 272
276 272 270 270 271 271 270 270 270 270 269 269 269 268 267 268 269 270 271 271 272 272 279 282 281 281 280 280 283 279 276 275 275 276 276 271 271 271
273 271 269 268 269 270 270 269 268 269 268 267 267 266 266 267 265 267 268 270 270 272 272 281 280 279 275 271 278 284 276 276 274 272 274 274 270 273
273 271 270 270 270 269 269 268 268 266 265 265 265 262 263 263 263 264 266 267 268 270 271 280 280 280 277 274 273 274 282 275 273 269 271 273 275 279
271 271 270 269 268 268 266 264 263 262 261 256 259 258 257 262 262 263 265 265 267 269 269 272 276 282 282 277 270 271 269 280 278 274 272 271 271 272
270 269 269 268 266 266 263 260 260 258 257 258 255 254 255 258 261 263 263 263 266 268 270 272 274 280 278 276 274 268 271 269 277 282 281 279 272 269
268 268 267 265 264 263 263 260 258 255 257 258 259 261 255 260 263 263 262 263 265 267 268 270 272 278 278 277 275 272 272 270 274 276 274 282 282 281

GFSNE_sfc_thetae_060.txt.gz
Theta_e
307 306 308 305 304 302 301 299 298 292 292 295 294 295 296 295 294 295 294 297 298 299 300 301 303 304 305 305 305 305 304 303 302 301 300 298 297 297
305 306 304 302 301 301 300 299 298 296 292 295 293 294 295 294 294 295 293 297 298 298 298 299 299 301 302 302 303 303 303 302 301 300 299 297 297 297
302 303 301 300 300 300 300 299 297 296 292 293 292 292 291 291 292 292 293 293 293 296 297 297 297 298 298 298 299 300 301 301 299 299 298 297 297 296
302 302 301 301 299 299 298 296 295 294 292 289 291 290 289 291 290 290 292 293 292 293 295 295 296 296 296 296 296 297 297 298 298 298 296 296 295 295
302 301 300 300 298 297 296 294 295 295 292 290 290 289 289 288 289 289 289 290 291 293 294 294 294 295 295 295 296 296 296 296 296 295 294 295 294 293
301 301 300 299 298 295 294 293 291 290 288 287 285 285 285 287 286 284 284 287 286 289 291 291 292 293 294 294 294 295 295 296 296 295 293 292 291 292
299 299 299 298 296 295 294 290 288 286 285 284 282 282 282 282 282 283 282 283 284 285 286 287 288 288 288 290 291 292 294 295 295 294 292 290 290 291
297 296 296 294 292 290 289 288 287 284 283 280 280 280 279 280 281 280 280 280 278 283 282 282 284 284 286 288 289 289 291 292 293 292 290 290 291 291
296 294 291 290 288 287 286 285 283 284 284 281 278 278 279 280 280 279 280 280 279 283 283 280 284 283 285 287 289 290 290 291 291 290 290 291 290 289
293 290 287 285 285 284 281 280 280 281 281 281 279 280 280 281 282 282 281 281 282 283 284 279 283 282 285 287 287 289 289 289 290 289 289 289 289 289
285 286 285 283 284 283 281 280 281 281 283 282 282 283 284 284 283 282 279 278 277 279 283 281 282 282 284 284 286 286 287 288 288 289 289 289 288 287
282 282 283 282 282 283 281 280 279 278 278 278 279 279 280 280 281 281 280 277 277 276 282 280 282 282 280 283 281 283 285 287 288 289 287 286 286 285
280 279 280 282 283 283 282 280 278 277 276 276 276 277 277 277 277 278 278 277 275 275 280 281 281 282 281 281 280 281 282 284 285 285 285 285 285 285
279 278 279 282 282 281 279 279 278 277 275 274 274 274 274 274 275 276 277 277 278 278 279 280 280 282 281 280 279 281 281 281 281 282 282 282 283 284
279 279 281 281 280 279 278 277 276 275 273 272 271 272 273 273 274 275 276 276 277 278 279 282 283 284 283 280 279 279 280 281 281 281 281 281 281 281
278 279 279 279 278 277 276 276 274 273 272 271 271 272 272 271 271 273 272 273 273 275 277 281 285 284 282 281 281 279 280 280 280 280 280 280 280 279
277 276 275 275 274 274 274 273 272 272 271 270 269 269 269 269 269 271 270 271 270 271 273 276 281 284 284 282 279 280 280 280 280 280 279 279 280 280
276 273 271 271 271 272 271 270 271 270 270 269 268 268 267 267 267 267 268 268 268 270 271 273 275 279 281 281 283 280 280 280 281 280 280 278 279 281
273 272 270 269 270 271 270 270 268 269 268 267 267 267 266 265 265 265 266 266 266 268 270 272 274 275 277 275 280 284 280 279 279 278 279 278 279 280
273 271 270 270 270 270 269 268 268 267 266 265 265 265 263 263 263 263 264 264 265 266 268 271 273 273 271 276 277 279 284 280 278 278 277 278 279 279
272 271 271 270 269 269 268 266 265 264 263 262 262 262 262 261 262 262 263 263 262 265 266 268 271 274 275 277 277 277 279 281 280 279 277 277 277 277
270 270 270 269 267 267 265 264 263 263 262 262 262 260 258 258 260 261 262 262 263 264 266 269 272 273 273 276 277 276 276 276 278 282 280 280 278 275
268 268 267 266 265 264 264 263 261 260 260 260 259 260 257 259 261 262 263 263 263 263 264 266 269 271 272 274 278 277 275 275 278 278 280 282 282 281

GFSNE_sfc_thetae_066.txt.gz
Theta_e
329 328 324 320 319 320 320 318 313 307 307 314 312 311 310 310 306 308 309 303 299 298 299 300 301 302 302 303 303 303 304 304 305 305 306 306 307 307
328 325 325 325 323 321 319 317 315 311 307 314 311 313 310 304 303 306 307 299 299 298 297 297 298 299 299 299 299 299 300 301 301 302 302 303 305 305
323 320 319 318 317 316 314 314 312 311 307 309 308 308 304 302 301 304 305 304 306 298 296 296 296 296 296 297 297 297 297 297 298 298 299 300 301 302
318 316 314 313 310 311 311 308 308 309 311 305 303 300 299 303 305 305 302 302 302 299 296 295 294 294 294 294 295 295 295 295 295 295 296 296 298 299
316 314 312 311 310 309 307 306 306 306 302 298 302 299 300 298 297 299 299 300 299 296 292 292 292 293 293 292 293 293 293 293 292 292 293 294 295 296
314 314 313 311 309 307 303 303 300 297 299 296 294 293 294 296 295 294 295 297 294 293 293 291 291 292 292 292 292 292 291 292 292 291 291 291 292 293
315 314 312 308 303 304 302 299 298 296 294 294 292 289 290 291 291 293 292 292 293 294 293 293 293 293 293 293 292 292 292 291 290 290 291 291 291 293
313 310 307 300 298 295 295 295 296 294 291 288 288 287 289 292 292 290 290 288 287 294 291 290 292 290 292 293 292 290 290 290 291 290 291 291 292 291
307 303 299 299 296 295 290 289 288 288 290 292 288 290 290 290 290 289 288 288 288 290 289 287 291 289 292 291 291 291 291 290 290 290 290 291 291 290
301 299 297 293 292 290 288 286 285 284 284 284 286 287 287 288 289 289 288 287 287 288 289 284 289 288 290 291 291 291 291 290 290 289 289 290 290 290
292 293 291 287 287 288 284 283 283 282 284 283 283 283 283 282 283 285 284 283 283 285 288 286 287 287 288 288 290 290 290 289 289 288 289 289 290 288
286 287 287 286 285 285 284 283 281 281 280 280 281 281 281 283 280 282 283 281 282 282 288 284 284 284 282 287 289 290 291 289 289 289 289 288 288 291
283 283 284 285 285 284 284 284 282 282 280 281 281 283 284 283 283 283 282 282 281 282 285 283 282 282 282 282 285 288 290 291 291 290 288 288 289 288
282 282 283 284 283 282 281 280 280 281 281 281 281 280 280 281 281 281 281 281 282 281 282 281 280 280 280 280 280 285 288 290 291 289 291 290 287 286
282 283 283 282 281 280 279 279 279 280 280 280 279 279 280 280 280 280 280 280 281 281 280 280 280 280 281 280 280 282 286 288 290 289 291 290 288 289
282 282 281 281 281 279 278 279 280 279 279 279 278 279 279 278 278 278 277 277 277 277 280 281 280 280 279 280 281 282 285 285 288 289 289 289 290 290
281 281 280 280 280 280 280 279 280 279 279 279 277 277 276 277 277 277 276 276 274 275 276 278 280 281 281 280 280 281 283 286 287 287 287 287 289 289
281 281 281 281 281 280 280 279 279 276 278 276 276 275 274 275 275 275 274 275 274 274 275 276 277 277 279 281 284 283 284 286 287 287 287 285 286 289
281 280 280 279 278 278 277 277 276 276 274 275 274 274 273 273 273 273 273 273 273 274 275 276 276 276 274 274 280 283 283 285 286 286 286 285 285 287
279 278 277 277 276 276 276 275 275 275 274 273 272 272 272 272 272 272 272 272 272 272 272 274 275 275 274 273 273 278 280 280 281 285 285 287 287 282
277 276 276 275 275 275 274 273 273 272 271 271 271 271 271 271 270 271 271 269 270 271 271 272 275 275 276 276 274 277 282 284 283 282 286 285 284 284
275 274 274 273 273 273 272 272 272 271 271 271 270 270 270 270 269 269 270 269 270 270 271 272 274 274 274 274 273 275 278 282 285 284 283 283 284 280
273 273 272 272 271 271 271 270 269 269 269 268 268 268 268 268 268 269 269 269 269 269 269 270 271 273 273 273 273 274 276 277 282 283 284 283 282 282

GFSNE_sfc_thetae_069.txt.gz
Theta_e
328 327 327 327 329 327 323 318 312 308 309 315 315 320 319 320 311 309 310 302 302 300 300 301 302 303 303 303 303 303 303 303 303 304 304 305 306 306
327 327 327 328 327 326 322 320 319 313 308 317 316 314 313 312 308 310 311 304 300 299 298 299 299 300 300 299 299 299 299 300 300 300 301 301 302 303
326 326 326 326 325 322 322 319 315 313 309 312 307 314 309 311 305 308 308 307 306 299 298 297 297 296 296 296 297 296 296 296 296 296 296 297 297 298
325 325 323 322 322 321 315 313 314 313 311 308 307 306 308 307 302 304 305 306 307 302 299 297 296 294 294 293 294 294 294 293 293 294 294 294 295 295
324 324 323 320 315 315 314 313 312 311 311 308 304 300 304 300 301 304 302 303 303 301 295 294 293 293 293 293 293 293 293 293 293 293 292 292 292 292
324 324 321 318 314 314 312 311 310 307 305 302 299 298 297 296 297 295 295 299 299 299 296 292 293 294 294 293 292 292 293 293 293 292 292 291 291 291
323 322 318 316 309 311 312 309 307 303 300 298 294 291 292 292 292 294 291 293 297 296 295 295 295 295 295 293 293 294 293 293 293 292 292 291 291 291
320 318 318 307 306 299 299 299 302 300 298 297 295 293 290 291 290 290 288 288 289 296 293 292 294 293 293 294 293 292 291 291 291 291 291 291 291 291
316 319 315 310 303 305 294 291 288 290 290 295 291 289 288 290 290 288 288 289 289 292 291 288 292 290 293 292 292 292 291 291 291 291 291 290 290 290
320 317 310 300 299 294 290 285 284 284 285 286 286 285 285 287 289 289 289 289 289 289 289 284 290 289 292 292 292 292 292 291 291 291 290 290 289 289
294 294 294 291 290 290 286 284 284 283 285 285 285 284 284 284 283 287 286 284 284 285 289 287 288 287 290 290 290 290 290 290 290 290 290 290 289 289
286 288 288 288 287 289 287 285 281 280 281 280 280 281 282 281 281 283 284 282 282 282 287 285 285 286 282 288 289 288 288 289 290 290 290 290 289 289
285 284 285 286 286 286 286 284 282 282 281 282 282 282 283 284 284 283 283 282 281 281 285 284 282 282 282 282 284 286 287 286 288 290 291 290 290 289
283 283 284 284 284 283 283 282 282 281 282 281 282 281 281 282 283 283 283 282 283 282 283 283 280 280 279 279 279 283 285 287 287 289 291 291 289 289
283 283 282 282 281 280 281 281 281 282 282 281 281 281 282 282 281 281 282 282 282 282 282 282 280 279 280 278 279 281 281 283 286 287 290 290 289 289
281 281 281 280 279 279 280 281 281 280 280 280 280 280 281 280 280 280 279 279 278 279 281 282 281 281 279 279 280 280 282 280 285 286 287 289 290 290
281 282 281 281 280 280 280 280 280 280 279 279 278 278 278 278 278 279 278 277 275 276 277 279 280 281 281 279 278 279 280 281 284 285 286 287 289 289
283 282 282 282 281 281 280 279 279 278 278 277 277 276 276 276 275 276 276 275 274 275 275 277 278 277 278 279 281 279 281 282 283 282 284 285 286 289
281 281 280 280 279 279 278 277 277 276 276 276 276 275 275 274 273 273 274 274 273 274 275 276 275 275 273 272 278 283 278 278 279 280 281 285 285 287
279 278 278 277 277 276 276 276 275 275 275 274 273 273 273 272 272 272 272 272 272 272 272 273 273 275 274 272 272 276 278 277 278 279 280 284 287 284
277 276 276 276 275 275 274 274 273 273 273 273 273 272 272 271 270 271 271 270 270 270 270 271 273 275 276 276 273 274 279 281 281 280 281 280 282 283
275 274 274 274 273 273 273 273 273 272 272 271 271 270 270 270 269 269 269 269 269 269 270 272 273 273 273 272 272 273 276 279 281 281 282 281 281 280
272 273 273 272 272 272 271 271 270 270 269 269 269 269 269 268 269 269 269 269 269 269 269 269 271 272 271 271 272 273 274 276 277 278 280 283 282 283

GFSNE_sfc_thetae_072.txt.gz
Theta_e
318 318 319 319 320 319 318 317 313 308 307 310 312 315 315 317 313 311 311 303 302 301 302 304 306 306 306 306 305 305 305 305 305 305 304 304 305 304
319 318 318 319 320 321 320 318 316 313 309 313 312 315 315 315 313 307 306 304 301 300 300 300 301 302 303 303 303 302 301 301 301 301 301 301 301 301
318 318 319 320 320 320 320 320 317 316 312 314 312 312 309 310 304 306 306 304 300 299 298 298 298 298 299 298 298 298 298 297 297 297 296 296 297 297
317 317 318 319 319 320 320 318 318 318 315 311 312 309 309 309 304 303 306 307 305 301 299 299 298 296 295 295 295 294 294 294 294 293 293 294 294 294
317 317 317 317 317 319 319 317 317 316 314 312 312 305 305 302 301 301 301 302 304 304 299 297 296 296 295 294 293 293 294 293 293 293 293 292 292 292
318 318 318 318 317 318 317 316 315 313 312 310 310 298 300 298 301 299 297 298 298 301 299 297 296 295 294 293 293 293 293 293 293 293 293 292 291 291
319 319 319 316 309 314 316 314 312 310 310 308 306 294 295 292 296 297 295 293 295 297 293 292 291 289 290 293 293 294 293 293 294 293 293 292 291 291
317 318 318 306 306 301 301 302 309 311 308 306 304 298 298 294 291 290 288 287 285 294 291 290 290 288 290 291 293 293 293 293 293 293 293 292 291 291
317 317 315 314 304 311 299 293 289 288 293 302 298 290 288 290 290 286 285 285 285 288 288 285 288 286 289 291 292 293 292 292 291 291 291 291 291 290
316 316 312 311 306 300 290 286 286 286 287 288 287 287 287 288 288 287 285 285 285 287 288 282 285 284 287 288 291 292 292 291 291 291 291 291 290 289
294 293 296 294 292 292 287 286 284 283 286 286 286 286 286 286 286 285 283 282 282 282 286 284 284 283 283 283 286 290 289 289 289 290 291 291 290 290
286 287 288 288 288 288 287 285 282 280 281 281 280 282 282 282 282 283 283 281 281 280 283 281 281 280 278 282 282 282 282 287 287 287 288 289 290 287
284 284 285 287 287 286 285 283 281 282 282 281 281 281 283 283 283 281 282 281 280 280 283 280 278 277 277 278 279 280 281 281 282 284 288 288 290 290
283 283 284 285 285 284 283 283 282 282 281 281 280 280 280 280 282 282 282 281 282 280 282 281 276 277 276 275 275 278 279 281 282 282 283 285 288 290
283 283 283 283 282 282 283 283 282 282 281 280 280 280 280 280 280 281 281 281 281 281 281 281 278 278 276 274 274 276 277 279 280 281 280 281 283 287
280 279 279 279 280 280 280 280 279 279 279 278 278 279 280 279 279 280 278 278 277 277 280 280 279 277 275 276 276 275 277 275 278 279 280 281 282 286
281 280 280 280 279 279 279 279 279 279 277 277 277 276 277 277 277 277 277 275 272 273 274 278 279 278 278 277 274 275 275 276 277 279 279 278 280 284
282 281 280 280 279 279 278 277 277 275 276 276 275 275 274 274 274 274 275 274 273 273 273 274 275 275 275 276 279 275 276 277 277 276 277 276 277 280
278 277 277 277 276 276 276 276 274 275 276 274 273 272 272 272 272 272 272 272 272 272 272 273 272 271 267 266 274 278 273 273 273 273 275 276 276 280
277 276 275 275 275 274 274 273 273 273 272 271 270 269 269 270 269 269 269 268 269 269 269 271 271 271 269 267 268 271 277 273 273 272 274 277 279 282
274 273 273 273 273 273 272 272 271 270 270 268 269 268 264 267 266 267 266 266 266 268 268 268 270 272 272 271 267 268 272 277 277 275 276 275 274 276
273 272 272 272 271 271 270 269 268 268 267 267 264 263 263 264 264 263 263 264 266 267 268 269 271 271 270 269 267 267 269 272 276 278 280 279 276 273
270 271 270 270 269 268 268 267 267 265 265 264 265 265 259 260 264 263 264 265 266 266 267 267 268 269 268 268 268 268 269 270 272 273 274 280 281 282

GFSNE_sfc_thetae_075.txt.gz
Theta_e
318 317 316 316 316 316 317 316 312 306 307 308 309 312 313 313 312 312 312 309 304 304 304 306 308 309 309 309 310 309 309 308 308 308 307 307 307 306
318 317 316 316 316 317 317 317 316 313 309 311 310 311 312 314 314 314 314 309 303 302 301 302 304 305 306 305 305 306 306 306 305 305 304 303 303 303
317 317 316 316 316 316 317 317 316 315 311 314 315 315 311 314 314 313 313 310 309 301 300 300 301 301 301 301 302 302 303 302 302 301 300 300 299 298
316 316 315 316 315 317 317 316 316 316 314 311 314 313 309 311 314 307 307 308 305 301 299 299 300 298 298 298 298 297 297 297 297 296 295 295 295 295
315 314 314 314 315 316 316 316 317 317 316 315 314 316 312 304 306 304 305 306 305 304 298 298 297 297 297 296 295 295 295 294 294 294 294 293 293 293
315 315 315 314 314 315 315 316 317 317 317 314 313 313 307 303 306 307 300 302 302 304 301 298 298 297 296 295 294 294 293 294 294 293 292 292 292 292
315 315 315 313 308 311 315 315 316 316 315 313 310 310 301 294 298 303 303 302 295 297 295 295 294 294 293 294 292 294 294 293 294 294 294 293 291 291
314 315 316 306 306 301 301 303 313 315 313 312 311 308 308 303 300 294 289 288 288 293 290 289 292 290 292 293 292 293 293 293 294 294 294 293 292 291
315 315 314 314 305 312 298 292 289 289 292 305 308 308 297 291 290 287 286 286 285 286 287 285 288 286 291 292 292 292 292 292 292 292 292 292 291 290
315 315 314 314 309 306 293 287 286 286 287 289 290 287 288 289 289 288 286 285 285 286 287 282 285 284 288 289 291 292 292 291 291 290 291 291 290 290
297 295 301 303 297 295 289 285 283 283 287 287 287 287 287 287 288 287 284 284 282 283 285 283 284 284 284 284 287 289 287 287 288 288 288 288 289 289
287 288 289 291 289 289 287 285 281 281 281 282 282 282 283 284 285 285 284 281 282 281 283 281 281 281 279 281 281 282 282 284 285 286 287 287 288 285
285 285 286 288 288 287 286 284 282 282 281 282 282 282 283 283 282 282 282 282 281 280 282 280 279 279 279 278 279 280 280 280 280 281 283 286 286 285
283 284 285 285 285 284 283 283 283 282 282 281 280 280 280 280 280 280 281 281 282 280 281 281 277 278 276 275 275 278 277 278 278 279 280 282 284 285
283 283 284 283 283 282 283 283 282 282 281 280 279 278 279 280 281 281 281 281 281 281 281 281 279 278 277 275 274 275 275 277 278 277 278 278 278 279
280 280 280 280 280 279 279 280 280 279 278 278 277 278 279 278 278 278 277 277 277 277 279 280 279 278 275 276 276 275 276 274 277 277 277 278 278 278
281 280 279 279 278 277 278 277 277 277 276 276 276 276 276 276 275 276 276 275 273 273 274 277 278 277 277 276 274 275 274 275 276 276 276 274 276 277
280 278 277 277 277 276 275 274 275 275 275 274 274 274 273 273 273 273 274 273 271 272 272 273 272 271 272 274 276 273 273 272 273 274 274 272 273 275
276 276 275 275 274 274 274 273 272 272 273 273 272 272 272 271 270 270 270 269 269 269 270 271 270 269 266 265 271 275 270 271 272 272 273 273 272 274
274 273 273 273 273 272 272 272 272 271 271 271 269 269 268 269 268 268 267 265 267 268 268 269 269 269 266 265 266 269 275 271 270 270 272 274 276 279
272 271 271 271 271 271 270 269 269 268 268 267 267 266 265 266 265 266 265 264 265 267 266 267 268 270 270 270 264 265 269 274 274 271 271 271 270 272
271 270 269 269 268 268 267 267 267 266 265 266 263 261 260 262 261 262 261 261 265 265 266 267 269 269 268 266 265 265 267 269 272 274 276 275 272 270
267 267 266 266 266 265 265 264 263 263 263 262 261 259 253 258 261 260 260 263 264 264 265 265 266 267 266 266 265 265 266 267 269 270 272 277 277 279

GFSNE_sfc_thetae_078.txt.gz
Theta_e
317 317 316 316 316 317 316 314 311 306 308 309 310 313 314 315 312 311 310 308 304 304 304 306 308 311 312 315 316 316 316 315 315 315 314 313 311 310
317 316 316 317 317 317 316 316 315 312 307 312 311 313 313 314 313 312 312 309 305 303 302 303 304 307 309 311 311 310 311 311 311 311 310 309 308 307
317 315 315 316 316 316 316 316 315 314 310 312 313 314 309 311 312 311 313 313 313 304 302 302 302 302 305 305 305 306 306 306 307 307 306 305 305 305
315 315 314 315 314 315 315 314 314 314 311 309 312 312 309 313 313 311 312 313 313 308 302 301 301 300 300 300 300 301 301 301 301 301 301 300 300 300
314 313 314 314 313 314 314 314 313 313 313 312 312 314 314 310 310 309 312 311 310 307 300 299 300 300 299 299 298 298 297 296 295 295 294 295 295 295
313 314 314 313 313 313 313 313 314 313 313 313 313 313 315 313 309 311 308 307 308 308 303 299 299 299 298 296 296 295 294 293 292 292 292 292 292 293
313 314 314 313 308 310 313 313 313 312 312 312 312 313 313 299 303 310 306 309 296 297 297 296 296 296 296 295 294 292 292 291 291 291 292 293 292 292
312 313 314 305 305 300 300 302 309 311 311 312 312 311 312 313 309 307 308 291 293 293 291 289 292 290 292 292 292 291 290 290 291 292 293 294 293 292
313 313 313 313 305 311 302 297 296 293 295 311 312 313 313 314 310 291 289 288 286 287 289 285 289 288 292 292 291 291 291 292 292 292 292 293 292 291
315 315 314 313 312 311 310 300 294 288 289 290 293 293 289 291 293 292 288 285 285 285 287 283 286 285 288 288 288 289 290 291 290 289 289 289 289 290
315 315 312 313 308 300 304 291 285 284 287 288 287 286 287 287 289 289 285 286 282 282 285 284 284 284 285 285 287 289 287 286 286 285 286 287 288 288
294 290 288 291 292 293 304 290 284 282 283 282 282 283 283 284 284 284 284 282 282 280 280 281 280 281 279 281 282 282 282 283 283 283 283 284 285 284
285 285 286 287 287 287 286 285 282 283 282 282 281 281 281 281 281 281 281 281 280 277 280 280 278 278 278 278 279 281 280 280 280 280 282 282 283 283
283 283 284 285 285 284 283 284 283 282 281 280 279 278 278 279 280 281 281 281 281 280 281 281 278 277 276 275 275 278 278 279 279 279 279 280 281 281
282 283 283 283 283 281 282 282 282 281 279 278 277 277 279 280 280 280 280 280 280 280 279 280 279 278 277 276 275 276 276 277 278 278 278 277 277 278
280 280 280 280 279 278 278 279 278 278 277 276 276 277 278 277 276 277 276 276 276 275 278 279 278 277 275 275 275 274 276 274 276 276 276 276 276 276
280 279 278 277 276 276 276 276 277 276 275 275 275 274 274 274 274 275 274 274 272 272 273 274 275 275 275 274 271 272 273 273 273 273 273 272 273 274
278 276 275 275 274 274 273 273 273 273 273 273 273 273 272 272 272 272 272 271 269 270 269 270 271 271 271 272 274 270 270 270 271 272 273 271 271 273
274 273 272 272 272 273 272 272 271 272 273 271 270 270 270 270 270 269 268 268 268 268 269 270 269 267 263 261 268 273 269 270 270 270 271 271 270 272
272 271 271 271 271 271 271 270 270 270 269 269 268 267 267 267 266 266 266 263 266 267 267 268 267 267 263 259 264 267 273 269 268 267 268 270 272 275
270 269 269 269 269 269 268 268 267 266 266 265 265 263 259 263 262 264 263 262 263 265 264 265 267 269 269 268 260 262 267 272 272 270 270 268 268 269
268 267 267 266 266 266 265 264 264 263 263 263 260 258 256 260 259 260 260 260 263 264 265 266 267 267 266 265 263 263 265 267 271 273 274 273 270 268
265 264 263 261 261 261 262 261 260 259 259 257 258 258 253 258 261 260 260 262 263 263 264 263 265 265 265 265 264 264 265 265 267 267 269 273 275 275

GFSNE_sfc_thetae_081.txt.gz
Theta_e
316 315 316 316 316 316 315 314 310 305 306 308 310 313 314 314 312 312 311 309 305 304 304 306 309 311 312 314 315 317 319 320 321 321 321 321 320 319
317 315 315 315 316 316 315 314 314 311 307 313 311 312 314 314 314 313 312 308 305 303 302 303 304 306 308 309 310 312 313 315 317 317 318 317 316 316
316 315 315 316 315 315 315 315 314 313 310 312 314 312 310 312 313 313 313 312 312 304 302 302 301 302 303 304 305 307 308 310 312 314 313 313 312 310
315 315 315 315 315 315 314 313 313 314 312 309 313 313 309 312 312 312 312 313 313 310 304 303 302 301 300 301 301 302 304 306 305 305 305 306 306 305
316 315 315 315 313 314 314 313 313 313 313 311 311 314 314 308 309 309 311 313 313 310 304 302 302 301 301 300 300 301 302 300 299 298 297 296 295 294
315 316 315 314 313 313 313 313 314 313 312 311 311 311 312 312 310 312 311 310 311 312 308 305 302 300 299 299 298 299 298 296 295 293 292 291 291 291
313 313 313 312 307 310 313 312 311 310 310 310 310 311 310 310 306 311 310 311 312 309 305 297 298 298 298 297 298 297 294 293 293 292 292 291 290 290
312 313 313 305 305 299 299 301 308 310 308 309 309 308 309 310 312 311 310 309 304 295 294 290 292 292 294 293 293 292 292 292 292 291 291 291 291 291
313 313 312 313 305 311 302 296 297 297 300 311 309 309 309 311 312 311 309 309 307 290 289 285 289 289 292 292 292 291 291 291 291 291 290 291 291 291
314 314 313 313 313 311 310 309 305 305 299 298 303 303 297 293 297 297 292 285 285 285 287 285 285 284 287 288 289 289 289 289 290 289 288 289 289 289
315 315 303 307 304 299 306 306 294 285 287 288 287 287 287 287 289 289 286 287 284 282 282 284 283 283 284 284 286 287 287 287 286 285 285 285 285 286
291 288 287 287 287 288 292 302 288 282 283 283 282 282 283 283 284 283 285 283 282 279 280 280 280 280 280 282 281 281 282 283 282 282 283 283 283 282
285 284 284 286 286 286 286 285 284 283 281 281 280 280 280 280 281 281 281 281 278 276 280 280 279 279 279 279 280 280 280 280 280 280 281 281 282 282
283 283 284 285 285 284 284 284 283 282 281 279 278 278 278 278 279 280 280 280 280 278 279 279 278 277 277 276 275 279 279 279 279 279 279 280 280 280
282 282 282 282 282 281 281 281 280 279 278 277 276 275 276 278 278 278 279 279 278 279 279 278 277 277 277 275 274 275 275 277 279 278 278 277 277 277
280 279 279 279 278 277 277 278 277 277 276 275 274 275 276 275 275 276 275 276 275 275 276 276 275 275 273 273 273 272 274 272 274 274 274 274 275 275
277 276 275 275 274 274 274 274 274 274 273 273 273 273 273 273 272 273 273 273 271 270 270 272 274 274 274 273 271 271 270 270 271 271 271 271 272 272
274 273 272 272 272 272 271 272 272 272 272 272 271 271 271 271 270 270 271 270 269 269 269 270 270 269 269 270 273 269 269 269 270 271 271 269 269 271
272 271 271 271 271 271 271 271 270 270 271 269 269 269 269 269 269 268 268 268 268 268 268 269 268 266 262 259 267 272 267 268 268 267 268 268 267 269
270 269 268 269 269 269 269 269 268 268 267 267 266 266 266 267 266 266 266 265 266 266 266 267 267 266 263 258 260 266 271 268 267 266 267 269 270 273
268 267 267 267 267 267 266 266 265 264 263 262 262 263 261 263 262 263 264 263 264 265 264 264 266 268 268 266 257 260 266 271 271 268 268 267 267 268
265 265 265 264 264 264 263 263 262 261 260 260 255 255 255 259 258 258 259 259 263 263 264 265 266 266 265 264 262 261 264 266 269 271 272 271 267 265
262 263 262 262 263 262 262 260 259 258 258 258 257 258 251 256 259 258 257 259 262 261 263 262 263 264 264 263 263 262 262 263 265 265 267 271 273 274

GFSNE_sfc_thetae_084.txt.gz
Theta_e
315 315 314 314 315 315 314 314 311 305 307 309 310 314 314 314 312 313 312 309 305 304 305 306 309 311 312 313 314 316 317 319 320 321 322 322 323 324
317 315 315 316 316 316 315 314 313 312 308 310 311 313 314 315 315 314 314 309 305 303 303 303 304 306 308 309 310 311 312 314 315 317 318 319 321 322
316 316 315 316 316 316 316 316 314 313 309 311 314 315 312 314 314 315 314 314 313 304 302 302 302 302 303 304 305 306 308 309 311 312 314 316 319 320
316 315 315 316 315 316 315 314 314 314 312 309 312 313 311 314 314 314 314 314 314 309 304 303 302 301 300 301 301 301 302 303 305 306 308 311 313 316
316 316 315 315 314 315 314 314 314 314 313 311 310 314 314 315 312 312 313 314 314 310 304 303 303 303 302 301 301 300 300 300 300 301 302 304 306 307
316 316 316 315 315 314 314 314 313 313 312 311 311 312 313 315 312 311 310 311 311 314 310 307 305 304 302 300 299 299 299 300 300 300 296 293 293 295
313 314 315 313 308 311 315 314 313 311 312 311 310 311 311 310 310 312 310 312 313 314 312 313 310 309 306 299 300 299 298 298 298 295 293 291 291 291
314 314 314 305 305 300 300 302 310 313 310 309 310 308 309 310 312 311 310 308 306 311 309 308 296 294 296 297 297 295 294 294 294 293 292 291 291 290
314 314 313 313 304 311 302 296 297 297 300 311 310 309 309 311 310 310 309 308 308 295 291 286 289 288 292 292 292 292 292 292 292 291 291 291 291 290
314 314 313 313 313 310 310 309 306 303 292 296 297 294 287 287 291 296 294 286 286 285 286 285 285 284 285 285 288 288 288 288 288 287 287 287 286 286
309 290 290 292 290 292 296 301 294 284 286 286 286 285 285 285 286 290 286 289 285 280 281 284 281 282 282 282 284 286 285 285 285 285 285 285 285 284
286 286 286 287 287 289 292 292 285 283 282 282 282 282 282 283 283 282 283 282 281 278 280 280 280 281 279 282 281 282 282 282 283 283 283 283 283 283
284 283 284 285 285 286 286 286 284 283 282 281 280 280 280 279 279 280 279 280 277 275 279 281 278 279 279 279 280 280 280 280 280 280 281 281 281 281
281 281 282 283 282 282 282 282 282 281 279 278 277 276 276 277 278 278 279 279 279 277 278 279 277 277 277 276 276 279 279 280 280 279 279 280 279 279
280 280 280 280 279 279 279 279 278 278 276 275 274 274 275 276 278 278 279 278 277 276 277 276 276 277 276 275 274 274 274 276 276 275 275 275 275 276
277 276 276 276 275 275 275 276 275 275 275 274 274 275 275 274 274 276 274 276 274 273 275 275 275 275 273 273 273 272 272 270 273 272 273 273 274 275
275 275 273 273 272 273 273 273 273 273 272 273 272 272 272 272 272 273 273 272 271 270 270 272 273 273 273 273 271 270 270 270 271 271 272 271 272 273
273 271 270 270 270 271 270 270 270 270 271 271 271 271 270 270 269 270 271 270 269 269 268 269 269 269 269 270 272 269 269 268 270 270 270 268 269 272
269 269 269 269 270 270 269 269 268 269 269 268 268 268 269 268 268 268 268 268 267 267 267 268 267 266 263 261 267 271 268 268 268 268 269 269 268 270
268 267 267 267 268 267 267 267 266 266 265 265 265 265 265 266 266 266 266 265 266 266 266 266 266 266 264 263 263 267 270 268 268 267 268 270 271 272
265 265 264 265 265 265 264 264 263 262 262 261 262 263 262 264 264 264 264 264 264 265 264 264 266 268 268 267 263 263 267 270 270 268 268 267 267 268
263 263 263 263 262 262 260 260 261 260 261 261 260 259 259 262 261 261 262 262 263 263 264 265 266 266 265 264 263 263 265 267 269 270 271 270 268 265
259 261 260 259 260 259 260 258 257 257 258 258 258 259 256 259 260 260 260 262 262 262 263 263 264 265 264 264 263 263 263 264 265 266 267 271 272 273

GFSNE_sfc_thetae_087.txt.gz
Theta_e
321 321 320 319 321 320 320 320 316 311 311 317 315 315 316 315 315 319 319 311 306 305 305 307 309 311 312 313 314 316 318 319 320 321 322 323 324 325
318 317 316 319 320 319 321 321 320 316 311 317 314 316 317 317 316 317 318 311 306 303 302 303 305 307 308 309 310 311 313 314 315 317 317 318 320 321
317 316 316 317 316 316 316 317 318 317 313 314 317 315 314 316 317 318 317 317 317 305 303 303 302 302 303 304 305 306 308 309 311 312 314 315 317 319
317 317 316 317 316 317 316 315 315 316 314 313 319 321 321 322 323 321 319 320 321 313 305 303 303 302 301 301 301 302 303 304 305 307 308 311 313 315
317 316 316 317 316 319 320 319 317 317 317 316 317 321 321 323 321 322 321 323 322 313 305 303 302 303 302 301 301 301 301 301 301 301 302 303 305 307
318 320 320 319 320 320 317 316 315 315 315 313 313 314 317 321 321 319 319 322 321 320 313 308 307 306 302 302 301 301 300 300 300 300 299 298 298 300
319 320 322 318 309 314 320 321 320 318 316 315 314 314 314 315 315 317 314 316 320 319 318 318 319 319 315 302 304 300 299 299 299 299 299 296 294 295
318 320 320 308 307 300 300 302 311 316 314 312 312 310 311 312 313 312 312 311 308 318 315 313 297 293 293 294 293 293 294 294 294 293 292 292 291 291
317 316 315 315 308 316 304 297 298 296 297 308 310 311 310 308 305 309 311 311 309 291 293 289 288 285 287 288 290 290 290 289 289 289 289 288 287 287
305 297 298 300 293 294 299 305 301 287 288 290 288 287 286 287 290 292 292 287 287 285 286 285 285 283 285 286 287 288 287 287 287 287 287 287 286 286
289 288 288 289 288 289 293 293 285 284 286 287 286 285 284 284 284 290 288 288 286 283 282 284 283 282 282 281 284 285 285 285 285 285 285 285 285 285
285 285 285 286 286 287 290 291 285 284 284 283 282 281 282 281 282 282 283 285 283 280 281 281 283 284 282 284 284 284 284 283 283 283 283 284 284 285
282 282 283 284 284 284 284 283 283 282 280 280 280 280 280 280 280 281 281 281 279 277 280 284 282 283 282 282 282 282 282 282 283 283 282 282 281 281
281 282 282 282 282 282 282 281 281 280 280 278 278 277 278 279 280 280 279 279 279 278 279 282 280 280 281 281 280 281 281 281 281 280 280 279 278 278
281 280 280 280 280 280 279 280 281 281 281 280 279 278 279 279 281 281 281 279 278 278 278 279 278 278 278 277 277 277 276 278 278 276 277 277 277 277
279 279 278 278 278 278 280 280 280 280 279 279 278 278 279 278 278 278 278 279 276 275 276 276 277 277 276 276 276 275 275 273 275 275 276 276 277 278
280 280 279 279 278 278 277 277 278 278 277 278 277 277 276 276 275 276 276 276 274 273 273 274 275 276 276 275 275 274 274 273 274 274 274 274 276 277
278 277 276 276 275 275 275 274 274 273 275 275 275 274 274 273 273 274 274 274 273 272 272 272 273 273 273 273 273 272 273 272 273 273 274 272 273 276
275 274 274 274 274 273 273 272 272 272 272 272 272 272 272 272 272 271 272 272 271 271 271 271 271 270 269 268 272 271 271 271 272 272 273 273 273 274
273 272 272 272 272 271 271 270 270 270 270 270 270 270 271 271 270 270 270 269 270 270 270 270 269 269 268 267 268 271 272 271 271 271 272 274 275 275
270 270 270 270 270 269 269 268 268 267 267 268 268 268 268 269 269 269 269 266 268 269 268 268 269 269 271 271 269 270 272 272 272 271 271 271 272 273
268 268 268 268 268 268 268 268 267 267 266 267 266 266 267 268 267 267 267 267 268 268 268 269 269 270 270 268 268 268 270 272 273 273 273 272 270 268
266 267 267 267 267 266 266 266 264 265 264 264 264 265 264 265 266 267 267 267 267 267 267 267 268 269 268 268 267 268 268 269 270 272 273 274 274 274

GFSNE_sfc_thetae_090.txt.gz
Theta_e
325 326 324 324 325 324 323 320 316 311 311 318 320 324 323 323 320 323 323 314 307 306 306 307 309 311 312 313 314 315 317 319 320 321 322 323 324 325
320 322 321 323 324 324 323 321 321 318 313 319 320 324 325 318 319 318 320 312 308 305 303 304 305 307 309 309 310 311 312 314 315 316 317 319 320 322
319 321 320 322 320 322 322 321 317 319 313 318 323 325 324 324 324 321 319 321 323 306 304 303 302 302 304 305 305 307 308 309 310 312 314 315 317 319
319 318 318 319 318 317 317 316 316 317 314 312 316 317 317 319 322 324 324 324 325 315 307 304 303 302 301 301 302 302 302 304 305 306 308 310 312 314
319 320 319 318 317 317 316 315 316 320 319 318 318 321 323 325 325 326 326 328 327 316 306 303 303 302 302 301 301 301 301 301 301 301 301 302 304 307
318 318 318 318 317 317 317 318 317 317 318 315 314 316 319 324 324 322 322 326 323 323 317 311 310 306 301 299 299 300 300 300 300 300 299 297 297 299
322 321 322 316 309 314 322 321 321 321 320 320 318 317 318 319 318 319 316 318 320 324 321 320 302 299 295 294 295 295 296 297 297 298 296 293 293 294
320 322 322 310 310 301 301 302 310 320 317 316 314 312 312 314 315 313 313 311 310 300 302 295 291 288 289 290 291 291 291 291 291 292 291 291 290 289
318 318 317 317 307 316 303 297 297 290 291 302 306 307 300 292 293 297 296 293 291 290 292 288 288 286 287 288 289 289 289 289 289 288 288 288 287 287
292 293 296 296 291 293 298 294 288 287 288 288 287 285 284 285 287 291 292 290 287 285 285 289 286 283 285 285 287 287 287 287 287 287 286 286 286 286
287 287 288 288 287 289 294 289 285 284 285 285 285 284 284 284 286 291 287 288 289 282 282 285 284 282 283 284 285 285 285 285 285 285 285 285 285 286
284 284 285 285 285 287 293 288 284 283 282 283 282 283 284 283 283 284 288 285 285 283 283 284 285 285 283 287 286 287 288 284 283 283 284 283 283 287
282 282 283 284 284 284 284 284 282 282 282 282 282 282 283 283 283 284 284 286 285 283 283 287 286 287 286 285 286 286 285 284 285 285 282 281 280 280
283 283 283 283 283 283 283 282 282 284 284 284 283 283 283 283 283 283 282 283 283 282 283 285 284 285 285 284 283 286 286 286 283 282 282 280 279 279
283 282 282 282 282 282 282 283 284 286 285 283 282 282 282 282 284 284 284 284 282 281 280 282 282 282 283 283 282 282 279 282 283 280 280 280 280 281
282 284 282 282 282 282 283 284 283 282 282 282 281 282 283 282 281 282 281 283 282 280 280 279 280 280 280 280 280 279 279 277 279 279 279 280 281 281
284 285 283 283 282 282 281 281 281 282 281 281 281 281 280 280 279 280 280 280 279 277 278 278 279 279 279 278 278 278 277 277 279 278 277 277 279 280
283 281 280 280 280 279 279 279 278 277 278 278 279 278 277 277 277 278 278 278 277 276 276 276 277 277 278 277 274 276 276 276 277 277 277 276 277 280
280 278 278 278 278 277 277 277 276 275 276 276 276 276 276 276 276 276 276 276 276 275 275 275 275 274 274 273 276 273 274 275 275 276 277 276 276 278
278 277 276 276 276 275 275 274 274 275 274 274 274 274 275 275 274 274 274 273 274 274 274 275 274 272 271 271 272 275 276 274 274 274 275 276 278 278
275 274 275 275 274 274 274 273 272 272 272 272 273 272 273 273 272 272 273 270 270 273 272 272 273 271 274 275 273 274 276 276 275 273 274 274 274 276
273 273 273 273 273 273 272 272 272 271 271 271 271 271 271 272 271 271 271 271 271 271 272 273 273 273 273 272 271 272 274 276 276 276 276 275 273 271
271 272 272 271 272 271 271 271 269 270 269 269 269 269 269 269 270 271 271 270 270 270 271 271 272 273 272 272 271 272 272 273 274 275 277 277 276 277

GFSNE_sfc_thetae_093.txt.gz
Theta_e
326 327 324 324 327 327 325 321 318 311 312 320 320 327 327 328 324 328 327 315 307 306 306 307 310 312 312 313 314 315 317 318 320 320 321 322 323 325
325 324 323 325 325 326 324 324 323 318 312 318 321 325 326 320 321 326 326 314 307 304 304 305 306 308 309 310 310 311 313 314 315 317 317 318 320 321
319 318 319 321 323 325 324 321 323 321 316 319 322 324 320 325 324 324 323 324 324 306 305 304 303 303 303 304 305 307 308 310 311 312 313 315 317 318
316 318 318 320 321 321 324 321 321 321 317 313 317 316 317 319 321 325 324 324 323 315 307 305 304 302 302 302 302 302 303 304 304 305 307 309 310 311
315 318 317 320 320 320 320 317 317 316 315 313 313 319 321 323 323 323 323 326 326 316 307 303 304 305 301 298 299 299 300 300 300 300 300 301 303 305
316 318 319 320 319 320 318 317 316 314 315 315 313 314 318 322 322 320 321 325 324 325 317 301 300 296 295 296 296 296 297 298 298 299 297 295 295 297
315 319 320 318 309 314 318 319 318 316 318 316 315 317 318 320 320 321 318 318 318 304 308 296 297 294 292 293 293 293 293 294 294 294 293 292 291 292
315 318 321 308 307 301 301 300 305 314 316 315 314 313 314 315 312 308 306 308 306 293 298 292 292 288 288 289 290 290 290 290 290 290 290 289 289 288
307 306 314 302 298 305 300 292 289 289 289 299 303 299 294 288 290 295 298 296 295 287 291 290 289 285 287 288 289 289 288 288 288 288 288 287 287 287
291 293 294 293 290 293 299 290 286 286 286 287 286 285 285 286 287 290 290 288 287 285 286 287 286 283 285 286 287 287 287 287 287 286 286 286 286 287
287 287 287 287 287 290 293 286 284 283 285 286 285 285 285 285 286 294 288 289 288 284 284 286 285 283 284 285 286 285 285 285 285 285 285 284 284 285
284 284 285 285 286 289 288 286 282 282 283 283 283 284 284 285 285 285 288 287 287 286 284 285 287 287 285 287 288 288 287 284 284 283 283 282 282 283
282 282 284 284 285 285 285 283 282 283 283 284 285 285 286 285 285 285 285 284 285 283 284 285 285 286 286 286 287 286 286 286 286 286 284 282 281 280
282 283 284 284 284 285 285 284 284 285 286 286 285 283 283 283 284 284 285 285 284 283 284 286 284 284 283 284 284 287 287 286 285 283 283 283 283 283
284 283 283 283 284 283 283 284 284 286 285 284 282 282 283 284 287 286 286 286 284 282 281 282 282 282 283 281 281 281 280 282 283 282 282 282 281 283
284 285 283 283 283 283 284 284 284 284 283 282 282 284 285 283 282 283 282 283 282 282 282 281 281 280 279 280 280 280 280 278 280 280 280 281 282 283
285 285 284 284 283 283 282 282 282 282 281 282 281 281 281 281 280 281 280 281 280 278 279 279 281 281 279 277 277 278 278 278 279 279 278 278 281 283
283 281 281 281 280 280 280 279 279 278 279 279 279 279 279 278 278 279 279 279 278 277 277 277 278 277 279 278 275 276 276 276 277 277 278 277 277 281
280 279 279 279 279 279 278 278 277 277 278 277 277 277 277 278 277 277 277 277 276 276 276 277 276 275 273 273 277 276 275 276 275 276 276 276 276 278
279 278 277 277 277 276 276 276 275 276 276 276 275 275 275 276 275 275 275 273 273 275 275 276 275 273 270 271 272 276 279 276 275 274 275 276 278 279
276 276 276 276 276 276 275 275 274 274 273 274 274 273 274 274 274 273 274 272 272 274 272 273 274 273 274 275 274 274 277 278 276 275 275 274 274 275
275 274 274 274 274 274 274 273 274 273 272 272 272 272 272 273 272 272 272 271 272 272 272 273 275 275 274 272 272 273 274 277 278 279 279 277 274 271
273 273 273 273 273 273 273 272 271 271 270 270 270 270 270 271 271 271 271 271 271 271 271 271 272 274 273 273 272 273 273 275 275 276 277 279 279 279

GFSNE_sfc_thetae_096.txt.gz
Theta_e
322 322 320 321 321 321 320 318 313 308 308 316 316 320 322 322 320 320 320 312 306 306 306 308 311 312 313 314 315 316 318 319 320 320 321 322 324 324
322 321 320 320 320 320 320 320 318 313 307 313 315 320 322 323 320 320 322 314 307 305 305 305 306 309 310 310 311 312 313 314 315 316 317 318 320 321
320 319 318 319 318 319 318 319 317 314 310 313 315 317 317 318 319 318 319 321 321 307 305 304 303 303 304 305 305 307 308 309 310 312 313 315 316 317
317 317 316 318 317 316 318 317 316 316 313 311 314 313 315 316 317 319 320 321 320 313 306 304 304 302 302 299 300 300 301 302 303 304 306 307 308 309
315 315 316 316 315 316 316 317 316 316 316 311 311 314 315 316 316 317 318 319 321 314 307 298 297 297 296 296 297 298 298 298 298 299 299 299 300 301
313 313 313 315 314 316 316 316 314 314 313 312 311 311 311 314 315 314 314 318 318 322 300 298 296 295 294 294 294 295 295 296 295 294 293 292 293 295
314 315 316 313 308 311 316 315 313 313 312 311 311 311 311 312 313 316 315 315 301 299 306 296 293 292 291 292 292 292 292 292 292 292 292 291 290 291
311 312 314 305 305 301 298 291 296 310 313 312 312 312 311 300 299 299 300 301 301 291 295 293 291 287 288 289 290 290 290 290 290 290 290 289 289 288
307 308 306 299 298 302 290 289 288 288 289 300 303 292 293 288 289 293 296 295 294 287 290 287 287 284 287 288 289 289 289 288 288 288 288 287 287 287
290 292 293 292 290 297 290 287 285 285 286 287 286 285 285 285 287 290 290 287 286 285 285 285 285 283 285 286 287 287 287 286 286 286 286 285 284 285
286 287 287 288 289 294 288 285 283 283 286 286 286 286 286 286 287 290 286 286 285 283 283 284 283 282 283 283 284 286 285 285 285 284 284 284 283 283
284 285 286 286 289 289 286 284 282 282 283 283 284 284 285 284 285 283 284 285 285 283 281 283 284 285 283 285 285 285 283 285 285 285 284 283 282 278
282 283 284 285 285 286 285 284 282 284 284 284 284 284 283 283 280 279 280 280 282 279 281 283 283 283 284 283 284 282 279 279 279 281 285 284 284 282
281 282 283 285 285 285 285 285 285 285 285 283 282 281 281 282 277 278 277 277 277 277 278 279 278 279 279 279 281 282 279 278 279 278 278 281 282 282
283 284 284 284 284 283 284 284 284 284 283 281 281 281 281 277 279 280 281 281 279 279 280 278 276 277 276 275 275 276 277 277 277 276 277 276 275 275
283 283 282 282 282 282 282 282 282 282 281 281 281 279 278 277 277 277 277 278 278 277 280 279 278 277 275 275 275 275 276 274 275 275 276 275 276 276
283 283 282 281 280 280 278 277 277 277 277 276 275 276 276 276 276 277 277 277 274 274 274 276 277 277 277 276 274 274 273 273 274 275 275 274 276 275
280 279 278 278 277 276 275 274 274 274 275 275 274 275 275 275 276 276 276 275 273 274 274 273 274 274 275 275 277 274 273 272 273 275 275 273 273 275
278 277 276 276 275 275 274 273 272 273 274 273 273 272 273 274 273 274 273 273 272 273 273 273 273 269 265 262 274 277 272 273 273 272 273 272 271 273
276 275 274 274 274 273 273 272 271 271 271 272 269 268 269 271 269 271 271 267 270 271 272 273 271 270 264 261 263 271 278 273 270 268 271 273 274 277
273 273 273 273 273 272 272 271 267 266 266 265 267 268 266 269 267 268 268 266 266 271 270 270 271 271 272 271 263 266 271 278 277 274 272 271 271 272
272 272 272 272 271 271 269 268 269 267 267 268 265 264 263 266 264 265 266 264 268 268 269 271 272 272 272 271 268 264 269 270 276 279 279 278 272 269
270 270 270 269 269 269 270 267 267 267 266 266 265 265 262 265 266 265 265 266 267 268 269 267 269 270 270 271 269 269 269 269 273 271 272 277 278 278

GFSNE_sfc_thetae_099.txt.gz
Theta_e
321 321 321 321 319 320 317 317 313 308 310 315 315 319 319 318 318 317 316 309 306 305 306 308 310 312 313 314 315 317 318 319 321 321 321 322 323 324
321 321 321 320 319 320 318 317 316 311 308 313 315 318 320 321 317 319 319 312 307 304 304 305 307 309 310 310 311 312 313 314 315 316 317 318 319 320
321 320 320 319 317 316 316 317 314 312 309 312 313 316 316 317 317 318 319 319 319 305 304 304 304 305 306 304 305 306 307 308 309 311 313 314 314 315
320 319 319 318 316 316 315 315 315 314 312 309 312 312 312 316 317 315 318 319 318 312 306 305 301 301 299 298 299 300 300 301 302 302 303 304 305 307
320 319 319 317 315 315 314 315 315 315 314 311 310 314 314 314 314 314 316 317 319 308 296 296 296 296 296 296 296 297 297 297 296 295 295 296 298 299
317 317 317 316 315 315 315 314 314 314 313 312 309 309 311 312 313 310 310 314 313 304 297 295 295 295 294 294 294 295 295 295 294 293 292 291 292 293
314 315 315 311 306 309 315 314 314 313 312 311 309 308 308 309 310 311 310 310 297 300 297 295 293 291 292 292 293 293 292 292 292 292 291 290 290 290
311 313 315 306 305 296 293 292 301 312 310 309 307 306 308 301 299 301 302 302 300 291 296 290 290 287 289 290 291 291 290 290 290 290 289 289 288 288
309 311 310 299 300 295 289 289 288 288 289 303 308 297 296 290 291 294 297 297 293 286 290 286 287 285 287 289 289 289 288 288 288 287 286 285 285 286
290 292 294 293 293 294 289 286 286 286 286 287 286 284 285 286 288 291 291 286 285 284 285 284 285 283 285 286 287 287 286 286 286 285 285 284 284 283
286 288 288 290 290 291 287 284 283 284 286 287 286 286 286 286 288 290 286 286 284 282 283 284 284 283 283 282 285 287 286 285 285 285 284 284 283 282
285 285 287 288 288 287 286 284 282 282 283 284 283 284 284 284 284 284 285 285 284 281 281 283 284 284 283 284 284 282 276 286 286 287 285 284 284 278
283 283 285 286 287 287 286 284 283 285 284 283 283 283 283 282 281 280 281 281 276 272 277 283 282 282 282 282 280 277 277 278 277 279 285 284 283 281
282 283 284 286 286 285 285 285 285 284 283 282 281 280 280 277 276 276 275 276 277 276 276 277 275 274 273 273 275 277 277 275 276 276 276 279 280 281
283 284 284 284 283 283 284 284 283 283 282 280 278 275 273 274 277 277 279 279 278 278 279 278 276 276 275 273 273 275 276 275 275 274 275 275 275 275
282 282 281 280 279 278 278 279 279 279 278 277 275 273 275 276 276 277 276 277 276 276 278 278 277 276 274 274 274 274 273 272 273 274 275 274 275 274
282 281 279 278 276 275 275 276 276 276 275 275 275 275 275 276 276 276 276 275 273 273 273 275 276 276 276 276 273 273 273 273 273 274 274 273 274 273
279 276 275 274 274 274 273 273 274 274 275 274 273 274 274 274 275 275 274 272 271 273 272 273 273 272 273 274 277 273 272 272 273 274 274 272 272 274
275 274 273 273 273 273 272 272 271 273 273 272 271 271 272 273 272 272 272 271 271 272 272 272 271 266 262 259 271 276 271 272 272 272 273 272 271 273
274 273 273 273 273 272 272 271 271 271 271 271 269 268 268 270 269 269 269 265 268 271 270 271 270 270 264 262 262 269 277 272 269 268 269 273 273 277
272 271 271 272 271 271 271 270 269 268 268 267 267 267 265 267 267 267 267 266 267 269 268 269 270 271 272 269 262 263 269 277 275 273 273 269 269 271
270 270 270 269 270 269 268 268 267 266 266 266 265 265 264 266 265 266 266 265 267 267 268 268 270 270 269 268 267 263 268 268 274 276 276 274 269 267
268 268 267 267 267 267 267 265 264 263 263 263 262 263 261 264 264 265 265 265 266 266 266 265 266 268 267 267 265 266 266 267 270 269 270 274 275 276

GFSNE_sfc_thetae_102.txt.gz
Theta_e
322 322 321 318 318 317 317 315 311 306 308 310 311 315 318 318 316 315 318 309 306 305 306 308 311 312 313 314 316 317 319 320 321 321 321 321 322 323
322 321 320 320 319 318 317 316 314 311 307 312 313 317 318 318 316 316 316 310 305 303 304 305 306 309 309 310 311 312 314 315 316 316 317 317 317 317
322 321 320 321 318 318 318 316 315 313 309 310 314 316 316 317 317 318 317 316 316 304 303 303 303 303 304 304 305 306 307 308 309 310 310 312 313 314
320 320 319 320 318 316 316 316 314 313 311 309 311 313 314 317 318 316 319 321 320 308 303 304 302 301 299 298 299 300 300 301 302 302 302 303 305 306
320 320 319 319 317 316 315 314 315 314 312 311 311 313 314 315 314 315 315 316 311 299 296 296 296 296 296 296 297 297 297 296 295 295 295 295 296 298
320 320 320 319 318 316 315 315 314 313 312 310 310 310 312 313 312 310 311 314 306 300 296 295 295 295 295 295 295 295 295 295 294 293 292 291 291 292
319 319 319 315 307 311 316 314 314 313 311 310 309 309 309 308 309 309 309 306 297 299 296 294 292 292 292 293 293 293 293 292 292 291 291 290 289 289
315 316 313 306 303 300 297 293 304 313 312 311 309 309 307 306 303 305 306 304 298 291 295 288 289 288 289 290 291 291 290 290 289 289 288 287 287 287
308 311 306 302 300 294 289 289 288 288 290 309 309 303 300 295 296 297 298 297 290 286 290 285 286 285 287 289 289 289 288 288 288 287 286 285 284 284
291 295 299 297 296 294 290 287 286 286 286 287 287 285 285 287 291 293 292 285 285 285 285 283 285 283 285 286 288 288 287 287 286 286 285 284 284 284
288 289 291 291 290 291 288 284 283 284 286 287 286 286 287 288 289 290 286 286 283 281 283 285 284 282 283 283 285 287 287 286 286 286 285 284 284 283
285 286 287 287 288 288 287 285 283 282 283 283 283 283 283 284 285 285 286 285 283 280 282 283 284 283 282 282 282 277 277 284 286 287 287 285 284 278
284 284 285 286 287 286 286 285 283 284 283 283 282 282 281 280 280 281 282 283 279 277 279 282 280 279 277 279 280 276 276 276 276 277 281 281 281 280
282 283 285 286 286 285 284 284 284 283 282 281 280 280 280 280 279 279 279 279 280 278 277 277 273 273 272 273 274 276 275 275 275 275 275 277 279 279
281 281 281 281 281 281 282 282 282 282 280 278 277 276 277 279 280 281 280 280 279 279 279 278 277 277 276 274 273 274 274 274 274 273 274 274 274 275
280 279 278 278 277 277 278 278 278 277 277 276 276 277 278 277 276 278 278 278 277 276 278 278 277 276 274 275 275 273 273 272 273 274 275 275 275 273
279 278 276 276 275 275 275 276 276 276 275 275 276 276 276 276 275 276 275 275 273 273 273 275 276 276 276 276 273 272 272 272 273 274 274 273 273 273
276 274 273 273 273 273 272 273 273 273 274 274 273 274 274 274 274 274 274 273 272 272 272 272 272 273 273 274 276 273 272 271 272 274 274 270 272 274
274 273 272 272 272 272 272 272 271 272 273 271 271 271 273 273 272 272 271 272 272 272 272 272 271 269 266 264 271 276 270 272 272 270 272 272 271 273
273 272 271 272 272 271 271 270 270 270 270 269 268 268 269 270 270 270 269 269 270 270 270 270 269 269 266 262 262 268 275 271 268 267 269 272 273 276
271 270 270 270 270 270 268 268 267 267 266 266 266 266 266 268 267 268 268 267 268 269 267 267 269 270 271 269 263 264 268 275 274 272 270 268 266 268
268 268 268 268 268 268 267 266 265 265 264 264 263 263 262 264 264 264 264 263 266 266 266 267 269 269 268 267 264 261 267 266 272 273 273 272 266 265
266 266 265 265 266 266 265 262 261 261 261 261 261 262 260 261 263 263 263 265 265 265 265 264 266 266 266 266 264 262 264 264 266 266 267 272 273 273

GFSNE_sfc_thetae_105.txt.gz
Theta_e
323 322 321 320 318 318 316 316 312 306 307 310 310 316 317 318 316 316 316 310 306 305 306 308 311 313 313 314 316 317 319 321 322 322 322 322 323 322
323 322 321 321 318 317 316 316 314 311 307 313 312 312 317 317 315 316 316 311 305 304 303 304 306 308 309 310 311 312 313 315 316 317 317 318 318 317
322 321 321 321 318 317 317 316 314 312 308 310 313 313 314 315 316 315 316 315 314 303 303 302 302 302 303 304 305 306 307 308 310 311 311 311 311 312
321 321 320 321 318 318 317 315 315 313 311 308 310 311 313 315 315 315 317 317 317 303 303 301 301 300 299 299 300 300 301 301 301 301 302 303 304 305
321 320 320 320 318 317 317 316 315 314 312 310 310 313 313 315 314 315 316 310 303 299 296 296 296 297 297 297 297 296 296 295 295 295 294 295 297 298
321 321 321 320 319 317 316 316 315 314 312 311 310 310 311 313 313 312 311 312 301 298 296 295 295 295 295 295 295 295 295 294 293 292 291 291 291 292
319 320 320 317 310 314 317 315 315 314 312 310 308 309 309 308 309 310 311 304 297 297 295 293 292 292 293 294 294 294 293 293 292 292 291 290 289 289
317 318 320 308 305 300 302 302 310 313 311 310 309 308 308 309 307 308 307 301 297 292 292 288 290 288 290 291 292 291 291 291 290 288 287 286 286 286
302 311 308 302 298 295 290 290 288 289 296 312 310 308 306 305 303 300 301 300 293 287 290 284 287 285 288 290 290 290 289 288 287 286 286 285 285 284
291 294 300 298 297 295 291 288 286 286 287 289 294 289 287 291 297 297 294 285 285 284 287 283 285 283 285 287 288 288 288 287 287 286 285 285 284 283
287 289 291 291 290 293 290 286 285 284 286 287 287 287 288 289 290 292 287 288 283 282 283 285 283 282 283 284 285 287 287 287 287 286 286 285 284 282
285 285 287 287 288 288 287 286 284 283 284 284 283 282 283 284 285 286 287 286 283 281 282 284 284 283 281 283 284 283 282 285 286 285 287 284 282 278
283 284 285 286 287 287 286 285 283 284 283 282 281 280 280 279 280 281 282 284 280 278 279 282 281 281 282 282 282 280 281 276 276 276 279 280 280 279
281 282 283 285 285 284 284 284 284 282 281 280 279 279 278 278 278 279 279 279 280 278 280 280 277 278 277 277 275 276 275 275 276 276 275 277 278 278
280 281 281 281 281 280 281 281 280 280 279 277 276 276 278 279 280 279 280 279 279 278 278 279 279 278 278 276 274 274 274 274 276 275 275 275 275 275
278 278 278 278 277 277 278 278 277 277 277 276 276 277 278 277 277 279 278 277 276 275 277 278 278 278 275 276 275 273 274 272 275 275 276 275 276 275
277 276 275 275 274 274 274 275 275 276 275 276 276 276 275 275 275 276 276 275 273 272 272 274 276 277 277 276 273 273 273 273 274 274 274 273 274 275
275 273 272 272 272 272 272 272 272 272 273 274 274 274 273 273 273 274 275 274 272 272 271 272 272 273 273 274 276 272 272 272 273 274 273 271 271 274
273 272 271 271 271 272 271 271 270 271 272 271 271 272 273 273 272 272 272 273 272 271 271 271 271 270 267 265 271 276 271 272 272 270 271 271 269 271
271 270 270 271 270 270 270 269 269 269 268 269 268 269 270 270 270 270 270 270 270 270 269 269 268 268 267 263 263 269 274 270 269 267 267 270 271 274
269 269 269 269 269 268 267 266 266 265 265 265 266 266 266 268 267 268 268 268 268 268 266 266 268 270 271 269 263 263 267 273 273 269 269 266 265 267
267 267 267 267 267 266 265 265 264 264 264 264 263 263 264 265 264 265 265 266 266 266 266 267 268 268 268 266 264 260 266 266 270 271 272 270 263 262
264 265 264 264 265 263 263 261 259 259 260 261 261 261 259 262 263 264 264 265 265 264 265 264 265 266 266 265 263 262 263 262 265 265 266 271 271 272

GFSNE_sfc_thetae_108.txt.gz
Theta_e
324 323 323 323 322 320 319 318 314 308 309 311 312 318 319 319 317 318 318 309 306 306 306 309 311 313 314 315 316 318 321 322 323 323 323 324 324 324
324 323 322 323 321 319 318 318 317 314 309 314 314 315 318 318 316 317 317 311 305 304 304 305 307 309 310 311 311 312 314 315 316 317 317 318 319 319
322 322 321 322 321 319 318 316 315 313 310 311 314 314 316 316 317 317 317 316 315 303 303 303 302 303 303 304 305 307 308 309 310 312 312 312 311 312
321 321 321 321 321 319 317 316 315 315 311 308 311 312 313 316 316 315 316 317 313 302 301 301 301 300 300 300 300 301 302 303 303 304 305 305 306 307
321 321 321 321 319 318 316 316 316 315 314 310 310 312 313 315 314 315 315 305 302 298 297 297 297 298 298 298 297 297 297 297 296 296 297 298 299 300
318 320 321 321 320 319 317 316 315 314 313 312 310 310 312 314 315 313 309 305 299 298 296 296 296 296 296 296 296 296 295 295 294 293 292 291 292 293
317 319 320 318 311 315 318 317 316 314 313 312 311 310 310 311 312 313 310 303 298 296 294 293 293 293 294 295 295 294 294 293 293 292 291 290 289 290
309 317 319 309 307 302 303 305 313 314 313 312 311 310 311 312 309 311 305 301 299 296 292 288 291 289 291 292 292 292 291 290 289 288 287 287 286 286
296 299 306 306 307 304 293 292 291 292 303 314 312 312 309 309 309 306 305 303 299 290 290 285 287 286 290 291 291 290 289 288 287 286 286 285 285 284
290 293 295 294 292 297 293 288 287 287 288 291 299 291 290 298 308 306 303 286 286 285 288 283 285 284 286 288 290 289 288 288 287 286 285 285 284 283
287 288 289 289 290 292 289 286 285 285 286 287 287 287 287 288 291 295 290 291 284 283 284 284 283 283 284 284 286 288 287 287 287 286 286 285 282 281
285 285 287 287 288 289 288 288 286 285 285 284 284 283 284 284 285 286 289 292 284 282 282 284 283 283 280 283 284 284 283 285 286 286 284 283 282 280
282 282 284 286 286 287 286 285 284 284 283 282 280 280 280 280 280 281 282 284 282 279 280 284 283 282 283 281 278 278 280 278 278 279 280 280 280 280
280 281 283 284 284 283 283 283 283 283 282 280 278 278 277 277 278 278 278 279 279 279 281 282 279 280 280 278 275 276 277 278 278 277 278 278 279 278
279 280 280 280 280 280 281 280 280 280 279 277 276 277 278 278 279 278 278 278 278 278 279 280 279 279 279 277 275 275 276 276 277 277 277 277 277 278
277 277 277 277 276 276 277 277 277 278 277 276 276 277 278 277 277 278 276 276 275 274 277 279 279 279 276 277 276 274 275 274 276 276 276 277 277 278
276 275 275 274 274 274 274 274 275 275 275 276 275 275 275 275 275 277 276 274 273 272 273 275 277 278 278 276 273 274 274 274 275 275 275 274 275 276
274 272 272 272 271 272 271 271 272 272 274 274 274 274 274 274 274 275 275 273 272 272 271 272 273 274 274 275 276 273 273 273 273 274 274 272 272 274
271 271 270 270 270 270 270 270 269 270 272 272 272 272 273 273 273 273 273 273 271 271 270 271 271 271 269 268 272 276 271 272 272 271 272 271 270 272
270 269 269 269 269 268 268 268 268 268 269 269 269 270 271 271 271 270 271 271 270 270 269 269 269 269 268 268 268 270 274 271 271 269 269 270 271 273
268 268 268 268 267 267 266 266 266 266 266 266 266 267 268 269 268 269 269 268 269 269 267 266 268 271 271 270 267 267 269 272 271 269 269 268 267 268
265 265 265 265 265 265 264 264 264 264 264 264 263 264 265 266 266 266 267 266 266 266 266 267 268 269 268 267 265 264 266 268 269 270 271 270 268 265
261 263 262 262 262 262 262 260 260 260 261 262 262 262 260 263 264 265 265 265 265 265 265 265 266 266 266 265 264 264 264 264 266 266 267 269 270 271

GFSNE_sfc_thetae_111.txt.gz
Theta_e
327 327 326 326 325 326 324 323 319 310 309 315 315 320 322 324 322 325 325 312 307 306 307 309 312 314 314 315 317 319 321 322 323 324 324 325 326 326
327 326 325 326 326 325 325 322 323 316 311 319 315 318 320 320 318 325 325 314 306 304 304 305 307 310 311 311 312 313 315 317 319 320 320 321 321 321
325 326 325 325 324 324 324 325 319 318 314 320 317 317 318 318 319 322 324 324 322 304 304 304 304 304 306 307 307 308 310 311 312 314 315 316 317 318
325 325 323 323 323 324 322 320 320 319 318 313 314 314 315 318 320 322 322 323 324 306 303 302 302 301 301 302 302 303 303 304 306 307 308 309 310 311
322 322 324 324 321 321 321 319 318 317 317 315 311 314 315 316 316 318 321 321 315 300 298 298 300 300 300 299 299 299 299 299 298 299 299 300 303 304
319 321 320 320 320 321 321 320 318 316 315 314 312 312 313 314 317 314 309 309 305 302 298 298 297 297 297 296 296 296 296 296 295 294 293 293 294 296
315 316 319 318 310 314 320 319 318 315 314 313 312 312 311 311 311 314 311 304 301 300 297 298 298 298 297 296 296 295 294 294 293 293 292 291 291 292
306 308 311 307 307 301 301 303 314 316 314 313 312 310 311 312 314 313 306 301 299 298 296 291 295 293 293 294 293 293 292 292 291 290 289 288 289 288
295 297 300 303 297 302 294 293 294 297 306 315 313 312 312 313 314 311 306 306 303 296 294 287 290 288 291 291 291 290 289 288 288 287 286 285 285 284
289 290 292 294 294 296 291 288 287 287 288 293 307 297 296 313 314 313 310 291 288 287 291 284 286 285 288 290 290 289 288 287 287 286 285 284 284 283
286 287 288 289 289 291 289 286 285 285 287 288 288 288 287 288 293 302 296 296 285 285 286 285 284 284 285 285 287 288 287 287 286 286 286 284 282 282
284 284 285 286 287 287 290 288 285 285 286 285 285 285 285 285 286 286 295 299 286 285 285 284 284 284 280 284 285 285 286 287 287 286 284 283 281 282
280 280 282 284 285 285 285 284 284 285 284 285 284 283 281 280 280 281 283 286 285 281 282 285 284 284 283 279 278 280 281 280 281 282 282 281 280 280
278 279 280 281 282 282 282 282 283 282 282 280 279 277 277 277 277 278 279 279 280 280 282 284 282 283 280 276 274 277 278 279 280 279 280 280 279 279
279 279 280 279 279 278 280 280 280 280 279 277 277 277 278 278 279 278 279 279 278 279 281 282 282 282 281 277 275 276 276 278 280 280 281 281 281 282
279 278 278 278 277 276 276 277 277 277 277 276 276 277 278 278 277 278 276 277 276 276 279 280 281 280 278 279 279 278 278 277 279 280 280 280 281 281
279 279 277 276 275 275 275 275 275 276 276 276 276 276 276 276 276 277 276 276 274 274 274 277 278 278 279 278 275 276 276 276 277 277 277 276 278 280
277 276 275 274 273 273 273 273 274 274 275 276 276 276 275 276 275 275 275 275 273 273 274 275 276 275 275 275 278 275 275 275 275 276 277 275 276 278
275 274 273 272 272 272 271 271 271 272 274 274 275 275 275 275 276 275 275 274 273 272 272 274 274 275 273 271 273 276 274 274 275 275 275 274 273 275
273 272 272 272 271 271 271 270 270 271 271 272 272 273 274 274 273 273 273 272 271 271 270 271 271 272 273 272 272 272 274 274 274 273 273 274 275 274
271 271 271 271 271 270 270 270 270 269 270 270 270 271 272 273 272 272 272 271 271 271 269 269 270 272 273 274 271 271 272 272 272 271 272 272 272 273
269 269 269 269 269 269 269 269 270 269 269 269 269 270 271 272 271 271 271 270 270 270 269 270 271 272 272 271 269 268 271 271 272 270 270 270 272 270
268 268 268 268 268 267 267 267 267 268 267 268 268 269 269 269 270 270 270 270 269 269 269 269 270 270 269 269 269 269 267 268 270 270 273 269 270 271

GFSNE_sfc_thetae_114.txt.gz
Theta_e
333 335 333 333 333 332 330 327 322 316 314 320 323 325 324 324 322 322 325 312 306 306 307 310 312 315 315 316 317 319 320 321 322 322 323 324 326 326
331 330 330 331 331 331 329 327 324 322 316 320 324 327 324 323 321 323 325 314 307 305 304 306 308 310 311 312 313 314 316 318 319 320 321 322 324 325
329 328 328 329 327 326 326 326 325 323 317 319 322 326 320 320 321 321 323 324 324 304 304 304 304 305 307 307 308 309 311 312 314 316 318 320 321 322
326 325 326 327 327 329 329 325 325 324 321 317 321 319 318 321 321 319 320 324 325 310 304 304 304 303 303 304 304 305 305 306 308 309 311 313 315 316
324 325 326 327 327 327 325 324 323 322 323 319 317 322 321 322 318 319 319 320 322 305 302 301 302 302 302 302 302 302 302 302 302 302 303 304 306 308
322 325 325 324 323 323 323 321 320 320 319 317 317 315 316 317 318 316 315 317 309 311 301 302 302 300 300 299 299 299 299 298 298 297 296 295 296 299
320 320 320 311 302 302 311 320 322 319 317 316 314 314 313 312 312 315 314 307 303 303 300 301 302 301 299 297 298 297 296 295 295 295 294 293 293 294
302 301 305 305 304 296 296 295 299 315 318 316 314 313 313 313 314 314 312 301 298 300 297 293 299 297 297 297 295 294 294 294 293 293 293 292 291 291
291 291 294 298 297 300 299 294 291 289 290 301 315 314 313 314 314 312 310 306 306 297 295 288 292 290 293 293 293 292 292 291 291 291 290 288 287 286
286 286 288 291 291 292 297 294 289 288 287 290 290 293 300 315 316 314 311 300 292 293 292 285 288 287 289 290 290 290 289 288 288 287 286 285 285 284
284 285 285 286 287 289 293 290 287 287 288 288 287 287 287 288 298 313 295 295 286 286 286 286 285 284 286 286 287 288 287 287 286 285 285 284 284 283
282 282 283 284 285 286 287 288 285 284 285 286 286 286 285 285 286 287 301 300 287 285 286 286 284 284 280 285 285 285 286 286 286 285 284 283 283 283
279 279 281 283 283 283 283 283 283 284 283 282 282 282 282 281 281 283 284 286 288 285 286 287 285 284 282 279 279 283 285 284 284 283 283 282 281 282
278 279 280 281 282 282 281 281 281 281 281 279 278 278 278 278 278 279 280 281 282 282 284 285 285 284 280 277 274 278 279 280 281 280 280 280 280 279
281 281 281 280 280 279 280 280 279 279 278 276 276 276 278 279 280 280 280 280 279 280 282 284 284 282 282 277 275 276 277 279 281 280 281 281 281 282
283 283 282 282 281 280 279 279 280 280 277 276 276 277 278 278 277 278 278 278 277 276 279 281 282 282 279 279 278 278 278 277 280 280 280 281 281 282
283 283 282 282 281 281 281 280 281 280 279 279 278 278 277 277 276 278 277 277 276 275 276 277 279 279 280 280 278 279 279 279 280 279 279 278 280 282
281 279 278 279 278 279 279 279 279 279 280 279 279 279 278 278 278 277 277 276 275 275 276 278 278 277 276 276 279 277 277 276 277 277 277 277 277 280
278 277 277 277 277 277 277 277 277 277 278 278 278 278 278 278 278 277 276 275 274 274 274 276 277 278 275 271 274 277 275 275 275 275 276 276 276 278
277 276 276 276 276 276 276 275 276 277 277 277 277 277 277 277 276 275 275 274 273 273 272 273 274 276 275 273 272 272 275 275 275 275 275 275 276 276
274 274 275 275 275 275 275 275 275 275 275 276 276 276 276 276 275 274 274 273 273 272 271 271 272 275 276 276 272 271 272 272 272 273 274 274 274 275
273 273 273 273 273 273 274 274 275 274 274 275 275 276 276 275 274 274 274 273 273 272 271 272 274 274 274 274 271 271 272 273 272 271 270 270 273 273
271 272 272 272 272 272 272 272 272 273 272 273 273 274 274 274 274 274 274 273 273 272 272 272 273 273 272 272 272 271 270 271 273 273 274 271 271 271

GFSNE_sfc_thetae_117.txt.gz
Theta_e
332 332 335 335 337 335 333 328 326 320 321 325 325 331 329 326 323 325 324 311 307 306 308 311 314 316 316 317 318 319 320 320 321 321 322 323 325 326
332 331 331 335 335 335 333 333 331 326 321 327 324 327 330 327 323 325 325 314 306 305 305 307 309 312 313 313 314 315 316 317 318 319 320 321 323 324
330 330 331 334 332 329 328 331 330 327 320 324 327 328 330 328 326 324 325 323 320 305 304 304 305 306 308 308 309 311 312 313 314 316 318 319 321 323
328 328 327 329 330 329 327 325 325 326 324 320 325 325 325 329 328 324 322 324 323 311 304 304 304 304 304 304 305 306 307 308 309 311 313 315 318 320
327 325 327 327 324 325 327 327 327 325 327 323 320 323 323 327 324 322 322 321 323 316 303 303 303 303 303 303 303 304 304 304 304 305 306 307 309 311
323 323 324 323 320 316 320 321 324 324 321 320 320 319 320 321 323 318 316 319 318 315 305 307 305 303 303 302 302 303 303 303 302 302 301 300 300 303
310 309 307 302 297 298 305 309 308 311 315 318 316 317 316 315 315 318 316 316 308 305 302 302 305 306 306 300 305 301 300 301 301 300 299 297 297 298
297 298 301 300 298 295 295 294 294 300 304 309 314 314 315 316 316 315 314 303 299 301 300 295 299 298 299 303 300 298 297 297 297 297 296 296 295 294
288 291 293 293 292 295 296 294 292 289 289 292 297 304 307 313 316 314 313 309 309 300 296 288 292 290 293 294 294 295 295 295 294 294 293 292 291 291
285 285 287 287 287 289 295 296 291 290 289 289 288 286 286 288 291 310 315 311 294 295 293 286 287 286 289 291 293 293 293 292 293 292 290 288 287 286
283 284 284 284 285 287 292 291 287 285 287 287 287 286 286 286 287 296 306 297 286 287 287 286 285 284 285 285 287 289 289 289 288 287 286 286 285 284
282 282 283 284 284 284 284 285 284 284 284 284 283 284 284 283 284 285 288 299 288 285 286 286 285 284 280 284 284 285 285 286 286 286 286 285 284 281
279 279 281 282 283 283 283 282 281 283 282 281 281 281 281 281 281 282 283 284 287 285 287 286 285 284 283 280 282 284 284 284 284 284 285 285 284 283
281 282 282 283 282 282 281 281 281 281 280 279 278 277 277 278 280 281 281 281 283 284 285 286 285 284 280 278 276 280 281 281 281 280 280 282 281 281
284 283 284 284 283 283 282 281 281 281 279 277 277 277 277 279 280 280 281 281 280 280 284 285 284 283 281 279 277 277 277 279 280 279 279 279 279 280
284 285 284 283 284 284 283 284 284 283 281 280 279 279 279 278 277 279 278 279 277 277 279 282 283 282 278 278 278 276 278 276 279 280 281 281 282 283
284 283 282 282 281 282 282 282 282 282 282 282 282 281 281 280 279 279 278 278 276 275 276 278 279 280 281 280 277 279 278 279 281 281 280 279 280 281
281 279 279 279 279 278 279 279 279 279 280 281 281 281 280 280 279 279 279 278 276 276 277 279 279 278 278 277 280 278 277 276 277 278 279 278 278 280
278 278 278 278 277 277 277 277 276 278 279 279 279 279 280 280 279 278 278 276 275 275 276 277 279 278 274 270 274 278 276 276 276 276 277 277 277 278
276 275 275 276 276 276 276 276 276 276 277 277 278 278 279 278 278 277 277 276 275 274 274 274 275 276 275 273 272 272 277 277 277 275 274 275 277 277
274 275 275 274 274 275 275 275 276 276 276 276 276 277 277 277 276 276 275 274 274 273 271 271 273 277 276 275 271 271 271 274 273 274 274 274 274 275
273 273 273 273 273 273 274 274 274 274 275 275 275 275 276 277 276 276 275 275 273 273 272 273 275 275 276 274 271 271 271 272 272 272 272 272 273 273
271 271 272 272 271 272 272 272 272 272 272 273 273 274 275 274 275 275 275 274 274 273 273 272 273 274 274 273 272 271 271 272 273 271 272 272 271 272

GFSNE_sfc_thetae_120.txt.gz
Theta_e
330 330 329 330 330 330 327 325 319 313 315 319 320 327 327 326 323 324 325 315 308 307 308 311 315 317 317 318 319 320 321 321 321 321 321 321 323 324
330 330 329 330 330 330 328 327 325 320 316 321 320 325 327 327 322 323 324 316 307 305 305 307 310 314 314 314 315 315 317 318 318 318 319 319 321 322
329 329 328 330 330 328 327 326 325 322 318 320 321 322 321 323 322 321 323 323 321 304 304 304 305 307 308 309 310 311 313 314 315 315 317 318 320 321
327 327 327 328 328 329 325 323 321 321 320 318 321 321 321 321 323 321 322 324 323 311 304 304 304 304 305 305 306 306 307 308 309 311 312 315 317 319
327 326 327 328 327 325 324 323 321 323 323 319 318 322 320 321 321 323 322 321 323 315 303 303 303 304 303 304 305 305 305 305 305 306 306 307 309 312
325 320 315 315 315 315 316 315 316 314 316 318 316 315 319 320 321 317 318 320 319 321 314 308 306 304 303 303 303 304 304 305 304 304 303 302 302 305
305 304 298 299 296 297 306 304 305 307 307 309 311 313 315 316 316 318 317 317 317 318 314 311 312 309 308 302 305 304 303 303 303 303 303 301 300 301
291 295 297 292 294 294 295 290 293 297 299 302 304 306 309 314 316 315 316 314 304 302 309 309 301 310 310 308 304 302 300 301 301 302 301 300 299 298
286 287 288 289 288 293 294 290 289 289 288 290 293 293 290 290 289 294 304 313 310 304 305 300 292 290 292 295 297 299 298 299 299 299 298 297 296 295
284 284 285 285 285 289 294 290 287 287 287 288 287 285 285 286 286 288 291 295 296 292 295 290 286 285 288 291 294 295 296 297 297 296 295 295 294 293
282 283 283 283 285 286 287 287 285 283 287 286 286 285 284 285 285 286 288 290 289 288 286 286 285 284 285 284 286 291 292 292 292 292 291 289 288 287
281 281 283 283 284 284 282 282 281 281 281 282 282 282 283 283 283 282 281 283 286 286 287 286 285 284 281 284 284 285 285 287 287 288 287 286 285 283
281 281 283 284 284 284 283 281 280 281 280 280 280 280 280 280 281 281 281 280 280 285 286 286 285 285 283 281 282 283 284 284 284 284 285 285 284 282
281 282 283 284 284 284 283 283 283 281 280 279 278 277 277 278 279 281 281 281 280 279 284 286 285 284 281 279 278 282 282 282 282 281 282 285 285 284
283 283 284 284 284 282 283 283 282 282 281 279 278 278 278 279 280 280 281 281 281 280 281 283 285 284 283 279 278 277 277 278 279 278 279 279 278 279
282 281 281 281 281 280 281 280 280 280 280 280 280 280 278 279 279 280 279 279 278 278 280 281 282 282 280 280 279 277 278 276 278 279 279 279 280 280
279 279 278 277 277 277 277 278 278 278 278 279 279 279 279 278 278 279 278 277 276 277 277 278 279 280 280 279 277 277 277 277 279 279 279 278 279 280
276 275 274 274 274 275 275 275 276 276 276 277 277 278 278 277 277 277 277 276 274 275 275 279 279 277 277 276 281 277 277 277 278 280 279 277 277 279
273 272 272 272 273 273 273 274 274 274 276 277 276 276 277 277 277 276 276 275 274 274 274 275 278 276 272 269 274 280 275 276 277 276 277 277 277 277
272 271 271 271 271 272 272 272 273 273 274 274 274 275 275 276 274 274 274 273 273 273 272 273 274 274 273 271 270 271 278 276 275 274 274 276 276 278
270 270 271 270 270 270 271 271 271 271 271 272 272 272 273 275 273 274 274 272 273 272 271 271 274 276 276 275 270 270 271 276 276 275 274 273 273 273
268 268 269 269 268 268 268 269 269 269 269 269 270 271 271 272 272 270 271 271 272 272 272 273 275 276 276 273 269 269 270 271 273 274 274 273 272 271
267 267 267 268 267 267 267 266 267 266 266 266 267 269 270 267 269 271 270 269 270 270 272 272 273 274 273 273 271 270 270 271 271 271 271 272 272 272

GFSNE_sfc_thetae_123.txt.gz
Theta_e
328 330 329 329 329 329 325 322 319 311 315 318 319 327 328 327 323 323 323 314 308 307 307 310 313 315 317 319 319 320 321 322 322 322 322 323 323 324
329 328 328 329 328 329 326 324 320 317 312 320 319 323 327 327 323 324 323 315 307 305 305 306 309 312 313 315 315 316 317 318 319 319 320 320 321 322
329 328 327 328 327 328 327 325 321 320 317 318 320 321 322 324 322 321 322 322 321 305 304 304 304 306 308 310 311 313 314 315 316 316 317 318 320 320
326 327 326 327 327 328 325 324 324 321 317 316 319 318 318 320 322 320 321 323 323 312 304 303 303 303 304 305 307 307 309 309 310 312 313 315 316 318
327 326 326 327 326 326 321 321 320 320 318 317 318 319 319 319 318 319 319 320 322 314 305 303 302 302 302 304 305 306 306 306 306 306 307 308 309 312
317 315 309 311 318 322 323 320 317 317 317 317 316 316 317 318 319 318 317 321 319 320 314 308 305 303 302 302 303 304 305 305 305 304 304 303 303 305
298 294 294 295 295 297 307 307 309 309 308 310 309 311 312 313 312 315 315 314 318 320 318 318 313 309 308 302 305 303 303 304 305 305 304 303 301 302
290 289 290 291 295 292 291 291 290 300 302 303 304 305 306 301 296 298 303 310 310 309 316 315 308 314 313 312 304 302 300 302 303 304 304 303 302 301
285 286 287 289 292 295 291 289 288 288 287 292 295 290 290 288 288 290 295 296 300 302 303 309 294 296 292 294 294 295 297 299 300 301 302 301 300 299
283 283 284 284 286 290 288 286 284 285 285 285 284 284 284 285 285 287 287 288 290 293 297 296 287 285 287 288 291 293 295 296 297 299 300 300 299 298
283 284 283 283 285 285 284 283 282 281 284 285 285 285 284 285 284 284 283 283 287 287 287 288 285 284 284 284 285 289 291 293 294 296 298 297 294 291
283 283 285 284 285 284 281 280 279 279 280 280 280 281 282 282 283 281 280 281 283 286 286 286 285 285 283 283 284 285 285 288 289 291 294 295 292 289
281 281 283 284 284 284 284 282 280 280 280 279 279 279 280 280 280 281 281 279 279 283 284 285 285 285 283 280 282 283 284 284 284 285 286 286 287 288
279 281 281 283 283 282 281 282 282 282 281 280 280 279 278 279 279 280 281 281 280 279 281 284 285 285 281 279 278 281 280 280 282 282 283 284 284 284
280 280 281 280 280 279 280 280 279 279 279 279 278 279 279 280 280 280 281 281 281 281 280 282 284 285 284 280 279 277 277 278 279 279 279 280 280 281
278 277 277 278 277 277 277 277 277 277 277 277 277 279 279 279 278 278 275 276 276 278 280 280 281 282 280 281 279 277 277 275 278 278 279 279 280 280
275 274 274 274 273 273 274 275 275 275 275 276 276 277 277 277 277 277 276 274 273 273 274 278 279 280 280 280 277 277 276 277 278 279 279 278 279 279
272 270 269 270 270 271 271 272 273 273 274 275 275 275 275 275 275 275 275 272 272 272 272 274 276 275 276 277 280 277 277 277 279 279 279 276 275 278
269 268 267 268 268 269 270 270 270 271 273 273 272 273 274 275 274 273 273 273 272 272 272 274 275 272 270 268 273 280 276 277 277 277 278 277 275 276
268 268 267 267 267 267 268 268 269 269 268 269 270 270 271 273 272 273 272 271 272 272 272 273 273 272 269 267 267 270 279 276 275 274 274 276 277 279
266 266 267 267 266 267 265 265 266 266 265 265 266 267 269 270 271 270 269 269 270 272 270 271 273 276 275 274 268 269 271 278 277 275 275 273 272 273
263 265 266 265 264 264 265 263 264 263 263 263 263 264 266 269 268 269 267 264 269 271 272 273 276 276 274 272 269 268 269 271 274 276 275 274 273 270
259 261 259 258 258 260 264 261 260 259 259 260 262 263 264 267 269 268 269 268 267 268 269 271 273 274 273 272 271 270 269 270 270 270 272 273 273 273

GFSNE_sfc_thetae_126.txt.gz
Theta_e
323 320 319 320 320 329 325 322 319 309 315 315 317 327 328 327 324 324 324 313 307 306 307 309 313 316 317 319 320 320 322 322 322 322 322 323 323 324
320 319 320 318 322 323 327 327 320 320 313 320 318 320 327 326 322 324 323 315 308 306 304 305 307 311 313 314 315 317 318 319 320 320 320 321 321 322
320 320 320 322 323 320 321 326 325 319 315 315 317 318 323 324 324 323 323 322 321 306 304 303 303 305 307 308 309 312 314 316 316 317 318 319 320 321
319 323 324 325 324 323 320 323 324 323 318 317 315 316 318 323 324 321 322 323 323 312 305 303 303 302 303 304 305 306 308 310 312 313 314 316 317 319
311 315 316 314 320 325 325 325 325 323 321 315 315 317 317 317 319 319 320 321 322 314 304 302 302 302 301 301 302 303 304 305 306 308 309 310 311 313
296 295 297 300 309 324 324 324 323 321 319 317 313 313 315 315 316 314 316 319 319 320 313 308 304 303 302 301 301 302 303 305 305 306 306 305 304 307
290 291 292 293 292 294 312 306 318 320 317 315 312 313 313 313 312 311 313 313 317 317 317 318 314 311 309 301 303 301 301 302 303 304 304 303 301 303
286 288 289 291 292 289 290 290 290 299 306 307 307 306 301 296 295 297 299 304 305 304 312 316 313 315 312 311 295 298 298 300 301 302 303 303 302 301
284 285 285 286 289 289 288 287 287 287 287 294 291 288 289 286 288 291 294 294 297 299 296 299 295 296 292 292 292 293 294 295 297 298 299 299 300 300
283 283 283 284 285 286 285 284 282 284 284 285 284 283 284 284 284 286 287 287 288 290 292 290 288 288 287 287 289 290 292 293 295 295 296 297 297 297
282 283 283 283 285 285 282 281 280 280 283 284 285 284 284 284 284 285 282 283 285 286 286 286 285 285 285 284 285 288 289 290 292 294 295 295 296 296
281 281 283 282 283 283 281 281 279 279 280 280 281 281 282 282 283 281 280 280 282 285 282 283 285 285 285 283 283 284 285 286 288 289 289 294 295 296
278 278 280 281 281 281 281 280 279 282 281 281 280 280 280 280 280 281 281 279 278 279 282 280 285 285 284 282 282 282 282 282 283 284 286 290 291 289
276 277 278 280 280 280 279 280 280 279 279 279 278 278 278 278 279 280 281 281 281 279 280 280 281 285 282 280 280 280 279 280 281 282 282 284 286 286
276 277 277 277 277 277 278 278 277 276 276 275 275 277 277 278 278 278 279 278 279 280 280 280 280 281 283 281 279 278 278 278 280 279 280 281 280 281
273 273 273 274 273 273 273 274 274 275 275 275 275 276 277 277 276 277 275 275 275 275 278 278 279 280 280 280 279 278 278 276 278 279 279 279 280 281
270 270 269 269 269 269 270 271 271 271 272 273 273 273 275 275 274 275 275 274 271 272 272 275 279 279 278 279 276 277 277 277 278 279 279 277 278 279
268 266 265 265 266 266 267 267 268 268 269 270 270 271 271 273 274 274 274 273 271 271 271 272 273 273 275 275 278 276 277 277 278 279 278 276 275 277
265 265 264 264 265 265 265 265 265 266 266 266 267 267 269 271 271 271 271 271 271 272 272 273 272 269 265 265 272 278 276 277 278 277 278 276 274 276
265 264 264 263 264 264 264 263 264 263 263 263 263 264 265 268 269 269 269 265 268 271 271 272 272 271 267 265 265 271 279 276 275 274 275 276 277 279
264 264 263 263 263 263 262 260 259 259 259 259 261 262 262 265 267 268 267 265 266 271 270 271 273 275 274 273 266 268 271 279 278 275 275 273 272 273
260 263 263 261 258 259 256 252 257 257 257 258 258 260 261 264 265 266 267 264 266 267 269 272 275 275 274 272 268 268 270 271 275 276 276 275 273 270
257 259 257 255 255 256 259 254 254 252 255 256 257 259 259 260 265 265 264 266 266 266 267 267 271 274 272 271 270 269 269 270 271 272 272 275 275 276

GFSNE_sfc_thetae_129.txt.gz
Theta_e
324 324 324 325 326 321 319 319 318 311 314 316 318 325 326 326 323 323 324 313 309 307 308 310 312 315 316 318 320 321 323 323 322 322 322 322 322 323
322 321 319 323 321 321 323 321 321 320 315 318 317 319 325 326 322 324 324 315 307 305 304 305 307 310 312 313 315 317 318 319 320 320 320 321 322 322
321 321 318 318 318 318 319 320 322 322 318 320 318 319 320 324 324 323 324 322 321 304 303 303 304 305 307 308 309 311 313 315 316 317 318 319 321 322
320 317 316 318 315 316 318 318 318 320 320 318 320 316 319 323 324 322 323 324 324 309 303 303 303 303 302 303 304 305 307 309 310 312 314 316 318 320
299 300 300 310 316 317 319 319 318 318 319 319 319 318 318 317 321 321 321 321 322 314 305 304 304 302 301 301 302 303 304 304 304 305 306 308 312 314
294 294 292 292 296 297 307 320 318 317 318 319 319 317 316 315 318 318 316 318 318 319 312 308 303 302 301 300 300 301 302 303 303 303 302 301 303 307
289 290 292 291 290 291 293 291 294 314 320 320 318 316 315 314 316 314 314 314 315 315 316 315 311 308 307 300 303 300 300 300 301 301 302 301 301 304
285 286 288 289 289 288 288 287 286 290 288 294 316 314 305 299 297 301 304 307 308 300 305 310 311 312 311 304 294 295 295 297 299 299 300 300 300 300
282 283 284 285 287 288 286 285 285 286 286 286 284 283 285 284 288 293 294 295 298 294 295 296 298 298 294 292 292 292 293 294 295 295 296 297 297 296
281 281 281 282 284 285 284 282 282 283 284 284 283 283 283 284 284 285 286 287 288 288 289 288 288 288 288 288 289 290 291 292 292 293 294 294 295 295
279 281 280 281 283 284 282 281 280 280 284 285 285 284 284 285 283 284 283 285 286 285 282 283 285 286 285 285 285 288 288 288 289 289 290 291 293 293
277 278 281 280 281 282 279 279 278 279 280 280 280 281 281 281 283 281 280 280 281 284 280 280 285 285 285 283 283 284 284 286 286 287 289 291 292 292
274 274 277 280 280 280 280 278 277 279 279 279 279 279 279 279 279 280 280 279 277 278 280 279 281 285 285 283 282 282 282 282 283 283 286 288 289 290
273 274 275 277 277 277 276 277 277 276 276 276 276 276 276 276 277 278 279 279 281 279 280 280 279 280 281 282 282 280 280 280 281 281 282 283 285 286
272 273 274 274 274 273 275 274 272 272 273 272 272 274 275 276 277 277 278 277 279 279 279 279 278 278 280 282 281 279 279 279 280 280 280 280 280 281
269 268 268 270 268 268 269 270 269 269 270 269 270 272 274 275 275 276 275 275 274 274 277 275 276 277 277 279 279 278 278 277 279 279 280 279 280 281
266 266 265 265 265 265 266 266 266 266 266 267 267 268 269 272 272 274 273 273 269 270 271 273 274 274 274 276 276 277 277 277 278 279 279 277 277 279
265 263 262 262 263 263 263 263 263 263 263 264 264 265 266 268 269 271 271 270 269 270 271 271 272 271 272 272 277 273 275 277 278 279 278 275 275 278
263 261 260 260 262 263 261 261 260 261 263 262 262 262 264 265 267 268 268 268 269 270 271 271 271 270 265 262 270 277 273 275 277 276 276 276 274 276
264 262 260 261 262 262 261 260 259 258 258 259 259 260 261 262 264 266 267 264 266 268 270 271 270 271 267 264 264 268 278 274 275 274 274 275 277 278
263 263 260 261 262 262 256 255 251 255 255 254 257 258 258 260 263 264 265 264 264 267 266 268 271 275 273 272 266 268 271 279 278 275 275 273 272 273
259 262 262 260 257 258 254 250 254 253 256 257 256 256 256 259 261 262 263 262 264 265 266 269 271 274 273 271 268 267 269 271 276 277 277 276 273 270
257 259 257 255 254 254 258 253 253 252 254 255 255 256 256 258 260 262 262 262 263 264 266 267 268 271 271 271 269 269 270 271 272 272 272 276 276 278

GFSNE_sfc_thetae_135.txt.gz
Theta_e
307 308 312 316 323 327 324 323 317 311 314 319 320 328 330 330 328 332 333 320 308 307 308 311 315 317 319 320 321 323 324 324 324 324 324 324 324 324
305 309 309 311 318 323 324 323 321 318 313 317 318 322 324 324 325 332 332 317 308 305 305 307 309 312 314 315 316 317 319 321 322 322 322 322 323 323
307 307 311 313 311 318 324 322 321 318 314 318 320 323 322 323 328 331 330 329 325 305 303 304 304 306 308 309 311 313 315 316 317 319 319 320 322 322
293 293 294 300 304 316 318 319 321 322 320 317 320 322 324 325 326 328 327 328 327 313 304 303 303 303 303 304 306 306 308 310 311 313 315 317 319 320
288 290 288 289 290 297 299 299 314 322 321 320 320 323 326 327 326 327 327 329 329 316 304 302 302 302 302 303 304 304 305 305 305 306 307 308 311 314
286 286 287 286 286 288 288 289 294 303 317 318 317 320 324 325 326 323 322 325 324 325 315 308 304 302 301 302 304 304 303 304 304 303 302 302 302 305
283 284 285 287 287 286 285 284 286 294 296 300 310 314 316 314 311 311 320 323 323 316 322 317 313 310 309 302 305 304 303 301 303 303 302 301 299 300
280 281 282 284 284 284 284 285 284 282 283 285 284 284 284 283 286 291 296 311 312 292 298 315 314 312 311 308 299 300 300 300 299 299 300 300 298 297
280 279 280 281 282 282 282 282 283 283 282 281 279 279 279 281 283 288 290 291 289 286 289 303 295 295 293 293 294 294 295 295 295 295 295 295 295 294
280 279 279 279 280 280 279 278 279 280 281 281 280 280 280 281 281 284 287 289 288 286 284 287 288 287 288 289 291 291 292 291 291 291 291 291 291 291
277 279 278 278 279 279 277 277 277 277 280 281 281 281 281 282 281 280 279 283 288 282 281 283 285 286 285 285 285 287 287 288 289 289 290 290 290 290
274 276 276 276 276 276 275 275 273 275 277 278 278 279 279 279 280 279 278 277 278 278 281 279 281 284 285 285 285 285 285 285 287 287 287 288 288 292
272 273 274 274 274 274 274 273 272 275 275 276 277 277 278 279 279 278 280 279 277 277 279 279 279 279 280 282 285 284 283 284 284 285 285 286 286 286
271 272 272 272 272 272 271 271 271 272 273 273 273 273 274 276 277 279 279 280 280 278 279 279 279 278 278 280 282 284 284 283 283 283 283 284 284 285
270 271 271 270 270 269 270 269 269 270 270 269 269 270 273 275 276 276 278 279 280 280 280 279 279 278 280 280 280 281 280 282 282 282 282 281 282 283
269 269 268 269 267 268 268 269 268 268 267 267 268 270 272 272 273 275 274 275 276 275 279 280 279 279 279 280 280 280 280 279 282 283 282 281 281 282
269 269 268 268 267 267 267 267 267 267 266 268 267 268 269 270 270 273 273 273 272 272 274 277 280 280 280 279 279 279 279 281 282 282 282 282 283 283
269 268 267 267 267 266 266 266 266 265 265 266 266 266 266 268 269 270 271 271 270 271 272 274 276 277 278 280 279 277 279 279 281 281 282 281 282 282
268 268 267 267 267 267 266 266 265 265 265 266 265 265 265 267 268 268 269 269 269 270 272 273 274 273 272 272 277 277 276 278 279 280 281 281 280 279
269 268 268 268 267 267 266 266 266 266 265 265 265 265 264 265 266 266 267 266 267 269 270 272 272 271 270 271 273 277 277 277 277 278 279 280 280 278
267 267 268 268 268 268 267 266 266 265 265 265 265 264 264 265 265 265 266 265 266 268 267 269 270 272 275 277 274 275 278 277 277 278 279 278 278 279
265 266 266 267 267 267 267 267 267 266 265 265 264 264 264 265 264 264 264 265 266 266 267 269 271 272 273 272 272 273 275 277 277 276 277 277 278 276
263 264 265 266 266 265 265 266 266 266 266 265 265 264 264 264 264 264 264 265 265 265 267 267 269 270 271 271 272 273 273 274 276 276 278 276 277 278

GFSNE_sfc_thetae_138.txt.gz
Theta_e
301 304 308 312 316 320 323 321 323 316 317 321 320 327 332 337 334 340 339 317 309 308 309 311 314 317 318 319 321 324 326 326 326 326 325 325 325 325
302 304 308 310 315 318 314 323 321 317 313 319 320 322 327 328 324 331 333 318 310 306 306 307 308 311 314 314 316 318 320 322 323 323 322 323 324 324
295 296 298 304 311 317 317 313 321 324 317 320 324 325 322 322 324 326 327 330 330 306 305 304 304 305 307 310 310 313 315 316 318 319 320 321 323 323
289 290 291 296 299 300 304 307 312 314 318 319 321 322 320 324 323 324 325 329 333 315 306 304 303 302 303 304 305 307 309 311 312 314 316 317 320 321
287 287 287 289 291 293 294 296 297 309 307 317 317 320 318 323 322 324 325 328 328 317 304 302 303 304 304 302 303 304 305 306 306 308 309 310 312 315
284 285 286 285 285 288 288 290 293 298 299 300 308 315 314 312 311 312 317 327 327 327 319 310 307 305 302 301 301 302 304 304 304 304 304 303 303 307
282 282 284 285 286 285 286 286 287 288 290 287 287 289 284 286 286 289 296 300 299 294 302 326 317 318 314 302 303 302 304 303 304 305 305 303 300 302
281 282 282 283 283 283 284 284 283 285 282 283 280 280 281 281 283 286 292 295 298 290 289 301 298 303 296 296 294 298 301 302 302 303 303 302 301 301
279 280 281 281 283 284 283 282 282 283 282 283 279 279 280 280 283 285 286 290 289 287 289 296 292 291 290 291 291 292 293 295 298 298 299 299 298 297
278 279 279 279 280 282 283 283 282 281 281 282 281 281 282 283 283 284 285 289 289 284 282 287 287 288 288 288 290 290 289 290 291 291 291 291 292 293
277 277 277 277 277 279 279 279 280 281 283 282 282 282 282 282 283 285 281 282 283 282 281 281 284 285 285 285 286 288 288 288 288 288 288 289 289 290
277 276 275 275 275 276 276 276 275 278 279 280 282 282 282 282 282 283 283 282 281 279 280 278 280 281 282 285 285 285 285 286 286 287 286 287 287 288
275 275 275 274 274 274 274 275 274 277 278 278 279 280 281 282 282 282 283 281 280 281 281 281 283 281 280 281 285 286 285 284 284 285 285 286 286 286
273 274 274 273 273 273 273 273 274 276 278 277 277 276 277 278 280 281 280 282 283 280 282 282 281 281 281 283 283 285 283 285 284 283 283 284 285 285
274 273 273 273 273 273 273 273 273 274 274 273 274 275 276 277 279 280 281 281 284 283 283 281 281 281 282 282 281 283 282 284 285 284 284 282 282 283
274 275 274 274 272 273 273 273 273 273 273 272 273 274 276 276 276 277 277 278 278 278 281 281 280 281 280 280 280 281 282 281 285 285 284 286 285 285
275 275 275 274 273 273 273 272 272 272 272 272 272 272 272 273 274 275 275 275 275 275 276 277 280 281 283 280 278 280 280 281 283 283 283 283 285 285
275 273 273 273 272 272 271 271 271 270 271 271 271 271 270 271 272 273 274 273 273 274 275 276 276 277 278 282 280 279 279 279 280 282 283 282 283 284
274 273 273 272 272 272 271 271 270 270 270 271 270 270 270 271 271 271 271 271 271 272 274 275 275 273 271 271 277 279 277 278 278 280 282 281 281 281
272 272 271 272 272 272 271 271 271 271 270 270 270 269 269 269 270 269 270 268 269 270 271 273 273 273 271 270 273 278 280 278 277 277 280 282 282 279
270 270 271 271 270 271 271 271 270 270 270 269 269 269 268 269 268 269 269 267 267 269 269 270 272 273 274 276 274 276 279 279 278 277 277 278 279 280
269 269 269 269 269 269 269 269 269 269 269 269 268 268 268 268 268 267 268 267 268 269 269 270 272 273 273 272 272 274 276 279 279 279 277 276 277 276
267 267 268 268 268 267 267 267 268 268 268 268 268 268 267 267 268 268 267 267 267 267 268 268 270 271 271 272 272 273 274 276 277 277 279 277 277 277

GFSNE_sfc_thetae_141.txt.gz
Theta_e
301 301 301 303 308 311 312 314 312 309 313 324 325 332 335 337 334 339 337 315 308 308 310 312 314 317 317 319 321 323 326 327 327 327 327 327 327 327
300 300 301 303 306 310 314 317 319 316 310 321 324 328 330 330 323 330 332 315 309 306 307 309 310 311 312 313 316 318 320 322 323 324 324 324 326 326
291 292 293 297 303 308 313 316 317 317 312 315 325 327 329 327 326 326 324 326 324 309 305 305 305 306 307 308 309 312 315 317 318 320 321 323 324 325
287 287 287 291 293 296 299 302 308 313 312 310 313 320 321 324 324 324 325 325 325 315 308 306 306 305 303 303 304 305 308 309 312 315 317 318 321 322
284 285 284 285 286 289 292 296 300 306 308 309 308 310 318 296 310 324 322 322 322 316 305 303 304 303 302 301 302 303 304 306 306 307 308 311 313 316
283 284 284 283 283 284 286 289 292 297 297 300 297 291 290 292 293 292 296 302 297 300 303 304 306 305 303 301 300 300 301 303 304 305 304 303 303 307
282 281 283 286 285 284 283 283 286 286 288 287 287 286 284 284 284 286 292 295 291 287 294 300 300 298 295 294 294 294 296 299 301 302 304 302 302 304
279 280 281 282 286 285 284 284 283 282 281 281 281 281 281 281 284 286 287 291 292 287 285 295 294 291 292 292 292 292 292 292 293 298 301 302 302 301
277 278 279 280 282 284 284 283 283 283 282 282 279 279 279 281 284 285 286 288 284 283 284 293 288 290 290 290 291 290 290 291 291 291 291 291 294 298
277 276 276 277 279 281 281 282 281 282 282 283 282 282 282 282 283 287 288 287 286 283 281 283 285 286 289 288 289 289 288 289 289 289 289 289 289 290
277 276 276 275 277 279 278 278 280 280 283 282 282 282 282 282 283 284 282 284 284 282 281 281 284 284 286 286 287 288 287 287 287 288 288 288 288 289
277 277 276 276 276 276 276 277 276 279 280 281 282 282 282 282 282 282 282 279 280 281 281 280 283 283 282 286 286 286 287 286 286 286 287 287 287 286
276 276 277 276 276 276 276 276 276 279 279 280 280 280 280 281 281 282 282 282 279 278 281 281 282 282 282 284 287 286 285 285 285 285 285 286 286 285
275 276 276 276 276 276 275 276 276 278 279 278 277 277 278 278 280 281 282 282 283 280 282 282 279 279 279 281 282 285 286 286 286 286 285 285 284 285
277 277 276 276 276 276 275 275 275 276 276 275 275 275 277 278 280 280 281 281 283 283 283 281 280 280 281 280 280 282 282 285 286 286 286 286 285 284
278 278 277 277 277 276 277 276 276 276 275 274 274 275 276 277 277 277 276 278 278 278 282 282 281 281 279 281 281 281 282 280 284 284 284 286 287 286
278 278 277 276 275 275 275 275 275 274 273 274 273 273 273 274 274 275 275 275 274 275 276 278 281 281 282 281 279 280 280 281 282 282 282 283 286 285
277 276 275 275 274 274 273 273 274 272 272 273 272 272 271 272 272 273 273 273 272 272 273 276 277 277 277 279 280 278 279 279 281 281 281 282 282 284
274 274 273 273 273 273 273 272 272 272 272 272 271 271 270 271 272 271 271 271 270 271 272 274 275 274 270 269 274 278 276 278 280 279 279 280 281 283
273 272 272 272 272 272 272 271 271 272 271 271 271 270 269 270 269 269 269 269 269 270 270 272 272 271 269 269 271 275 280 279 279 278 277 279 281 282
271 271 271 271 271 271 270 270 270 270 270 270 270 269 269 268 268 268 268 268 268 269 268 269 271 272 274 275 273 274 277 280 280 278 278 276 276 279
270 269 270 270 269 269 269 269 269 269 269 269 269 269 268 268 268 267 268 267 267 267 267 269 271 271 271 271 270 272 274 278 280 280 280 278 276 274
268 268 268 268 268 268 267 267 267 267 267 268 268 268 268 267 268 267 267 267 266 266 267 267 268 269 269 269 270 271 272 274 277 277 278 280 279 278